Sigfox identifier Datetime Temperature Humidity SNR
003C4AD4 2019-03-23 08:27:53 20.4 20 20.6
003C4AD4 2019-03-23 07:56:50 20.4 20 20.6
003C4AD4 2019-03-23 07:26:18 20.5 20 20.8
003C4AD4 2019-03-23 06:55:46 20.5 20 20.7
003C4AD4 2019-03-23 06:25:15 20.5 20 20.6
003C4AD4 2019-03-23 05:54:45 20.5 20 20.6
003C4AD4 2019-03-23 05:24:14 20.5 19 20.5
003C4AD4 2019-03-23 04:53:44 20.5 19 20.4
003C4AD4 2019-03-23 04:23:13 20.6 19 20.4
003C4AD4 2019-03-23 03:52:40 20.6 19 20.3
003C4AD4 2019-03-23 03:22:09 20.6 19 20.3
003C4AD4 2019-03-23 02:51:39 20.7 19 20.3
003C4AD4 2019-03-23 02:21:07 20.7 19 20.1
003C4AD4 2019-03-23 01:50:35 20.7 19 20.2
003C4AD4 2019-03-23 01:20:03 20.8 19 20.2
003C4AD4 2019-03-23 00:49:34 20.9 18 20.2
003C4AD4 2019-03-23 00:19:02 20.9 18 20.2
003C4AD4 2019-03-22 23:48:30 21 18 20.2
003C4AD4 2019-03-22 23:17:58 21 18 20.2
003C4AD4 2019-03-22 22:47:28 21.1 18 18.3
003C4AD4 2019-03-22 22:16:55 21.2 18 18
003C4AD4 2019-03-22 21:46:23 21.3 18 18
003C4AD4 2019-03-22 21:15:53 21.3 18 18.1
003C4AD4 2019-03-22 20:45:21 21.3 17 18.2
003C4AD4 2019-03-22 20:14:50 21.3 17 18.2
003C4AD4 2019-03-22 19:44:19 21.3 17 18.2
003C4AD4 2019-03-22 19:13:47 21.3 17 18.3
003C4AD4 2019-03-22 18:43:18 21.2 17 18.1
003C4AD4 2019-03-22 18:12:47 21.3 16 18.2
003C4AD4 2019-03-22 17:42:17 21.2 16 18.2
003C4AD4 2019-03-22 17:11:46 21.2 16 18.2
003C4AD4 2019-03-22 16:41:17 21.2 16 18.2
003C4AD4 2019-03-22 16:10:46 21.1 16 18
003C4AD4 2019-03-22 15:40:14 21 17 17.9
003C4AD4 2019-03-22 15:09:43 20.9 17 17.9
003C4AD4 2019-03-22 14:39:12 20.8 18 17.9
003C4AD4 2019-03-22 14:08:40 20.7 18 17.9
003C4AD4 2019-03-22 13:38:09 20.7 19 17.8
003C4AD4 2019-03-22 13:07:38 20.7 19 17.7
003C4AD4 2019-03-22 12:37:08 20.6 20 17.6
003C4AD4 2019-03-22 12:06:36 20.7 20 17.5
003C4AD4 2019-03-22 11:36:05 20.6 21 17.4
003C4AD4 2019-03-22 11:05:35 20.6 21 17.2
003C4AD4 2019-03-22 10:35:04 20.7 22 17.2
003C4AD4 2019-03-22 10:04:33 20.6 22 17.1
003C4AD4 2019-03-22 09:34:03 20.6 22 17.1
003C4AD4 2019-03-22 09:03:31 20.6 23 17.1
003C4AD4 2019-03-22 08:33:00 20.6 23 17
003C4AD4 2019-03-22 08:02:28 20.6 24 16.9
003C4AD4 2019-03-22 07:31:55 20.6 24 17.2
003C4AD4 2019-03-22 07:01:23 20.8 24 17.2
003C4AD4 2019-03-22 07:00:12 20.6 24 17.1
003C4AD4 2019-03-22 06:29:40 20.6 25 17.1
003C4AD4 2019-03-22 05:59:08 20.6 25 17
003C4AD4 2019-03-22 05:28:37 20.6 25 17.1
003C4AD4 2019-03-22 04:58:04 20.6 26 17
003C4AD4 2019-03-22 04:27:32 20.6 26 17.1
003C4AD4 2019-03-22 03:57:02 20.7 26 17.4
003C4AD4 2019-03-22 03:26:27 20.6 26 17.4
003C4AD4 2019-03-22 02:55:55 20.7 27 17.4
003C4AD4 2019-03-22 02:25:26 20.7 27 17.8
003C4AD4 2019-03-22 01:54:55 20.7 27 18
003C4AD4 2019-03-22 01:24:24 20.7 28 17.9
003C4AD4 2019-03-22 00:53:54 20.7 28 18
003C4AD4 2019-03-22 00:23:23 20.8 28 18.1
003C4AD4 2019-03-21 23:52:50 20.8 28 18.2
003C4AD4 2019-03-21 23:22:19 20.8 28 18.2
003C4AD4 2019-03-21 22:51:45 20.8 28 18
003C4AD4 2019-03-21 22:21:15 20.8 28 18
003C4AD4 2019-03-21 21:50:45 20.9 28 18
003C4AD4 2019-03-21 21:20:15 20.9 28 18.2
003C4AD4 2019-03-21 20:49:42 20.9 28 18
003C4AD4 2019-03-21 20:19:10 20.9 28 20.1
003C4AD4 2019-03-21 19:48:40 21 28 20.2
003C4AD4 2019-03-21 19:18:09 21 28 20.2
003C4AD4 2019-03-21 18:47:38 21.1 28 20.1
003C4AD4 2019-03-21 18:17:06 21.1 28 20.1
003C4AD4 2019-03-21 17:46:35 21.1 28 20.1
003C4AD4 2019-03-21 17:16:05 21.2 28 20.1
003C4AD4 2019-03-21 16:45:33 21.2 27 20
003C4AD4 2019-03-21 16:15:04 21.3 28 19.9
003C4AD4 2019-03-21 15:44:32 21.3 28 19.9
003C4AD4 2019-03-21 15:14:02 21.3 28 19.8
003C4AD4 2019-03-21 14:43:31 21.2 28 19.7
003C4AD4 2019-03-21 14:13:00 21.1 27 19.7
003C4AD4 2019-03-21 13:42:28 21 26 19.4
003C4AD4 2019-03-21 13:11:56 20.9 26 19.4
003C4AD4 2019-03-21 12:41:24 20.9 26 19.4
003C4AD4 2019-03-21 12:10:53 20.8 26 19.4
003C4AD4 2019-03-21 11:40:21 20.8 25 19.4
003C4AD4 2019-03-21 11:09:49 20.7 25 19.3
003C4AD4 2019-03-21 10:39:16 20.7 25 19.5
003C4AD4 2019-03-21 10:08:44 20.6 25 19.4
003C4AD4 2019-03-21 09:38:13 20.6 25 19.4
003C4AD4 2019-03-21 09:07:41 20.6 25 19.4
003C4AD4 2019-03-21 08:37:10 20.6 25 19.3
003C4AD4 2019-03-21 08:06:39 20.6 25 19.3
003C4AD4 2019-03-21 07:36:08 20.5 25 17.1
003C4AD4 2019-03-21 07:05:35 20.5 25 17
003C4AD4 2019-03-21 06:35:04 20.6 25 16.8
003C4AD4 2019-03-21 06:04:32 20.8 25 16.8
003C4AD4 2019-03-21 06:03:21 20.6 25 16.8
003C4AD4 2019-03-21 05:32:50 20.6 25 16.8
003C4AD4 2019-03-21 05:02:17 20.6 25 16.8
003C4AD4 2019-03-21 04:31:46 20.6 26 17
003C4AD4 2019-03-21 04:01:13 20.6 26 17.2
003C4AD4 2019-03-21 03:30:42 20.6 26 17.2
003C4AD4 2019-03-21 03:00:11 20.6 26 17.5
003C4AD4 2019-03-21 02:29:39 20.6 26 17.6
003C4AD4 2019-03-21 01:59:07 20.6 26 17.9
003C4AD4 2019-03-21 01:28:34 20.6 26 18.2
003C4AD4 2019-03-21 00:58:02 20.6 26 20.2
003C4AD4 2019-03-21 00:27:31 20.6 26 20.5
003C4AD4 2019-03-20 23:56:59 20.6 26 20.4
003C4AD4 2019-03-20 23:26:28 20.6 26 20.4
003C4AD4 2019-03-20 22:55:56 20.7 26 20.4
003C4AD4 2019-03-20 22:25:25 20.7 26 20.4
003C4AD4 2019-03-20 21:54:53 20.7 26 20.6
003C4AD4 2019-03-20 21:24:21 20.7 26 20.7
003C4AD4 2019-03-20 20:53:49 20.8 26 20.7
003C4AD4 2019-03-20 20:23:16 20.8 26 20.7
003C4AD4 2019-03-20 19:52:45 20.8 26 20.9
003C4AD4 2019-03-20 19:22:11 20.8 26 20.8
003C4AD4 2019-03-20 18:51:41 20.8 26 20.9
003C4AD4 2019-03-20 18:21:09 20.9 26 21
003C4AD4 2019-03-20 17:50:38 20.9 26 21
003C4AD4 2019-03-20 17:20:05 21 26 21.1
003C4AD4 2019-03-20 16:49:34 21 26 21.3
003C4AD4 2019-03-20 16:19:02 21.1 26 21.4
003C4AD4 2019-03-20 15:48:31 21.1 26 21.3
003C4AD4 2019-03-20 15:18:01 21.1 26 21.2
003C4AD4 2019-03-20 14:47:32 21 25 21.5
003C4AD4 2019-03-20 14:17:01 21 25 21.4
003C4AD4 2019-03-20 13:46:31 21 25 21.3
003C4AD4 2019-03-20 13:15:59 20.9 25 21.3
003C4AD4 2019-03-20 12:45:28 20.9 25 21.2
003C4AD4 2019-03-20 12:14:56 20.9 25 19.9
003C4AD4 2019-03-20 11:44:23 20.9 25 19.7
003C4AD4 2019-03-20 11:13:52 20.8 25 19.9
003C4AD4 2019-03-20 10:43:19 20.7 25 19.9
003C4AD4 2019-03-20 10:12:48 20.6 25 20.1
003C4AD4 2019-03-20 09:42:17 20.5 25 20.2
003C4AD4 2019-03-20 09:11:45 20.5 25 20.1
003C4AD4 2019-03-20 08:41:14 20.5 25 20.2
003C4AD4 2019-03-20 08:10:41 20.5 26 20.3
003C4AD4 2019-03-20 07:40:08 20.5 26 20.4
003C4AD4 2019-03-20 07:09:36 20.5 26 20.4
003C4AD4 2019-03-20 06:39:05 20.5 27 20.5
003C4AD4 2019-03-20 06:08:34 20.5 27 20.3
003C4AD4 2019-03-20 05:38:03 20.5 27 20.3
003C4AD4 2019-03-20 05:07:31 20.8 27 20.3
003C4AD4 2019-03-20 05:06:20 20.5 27 20.5
003C4AD4 2019-03-20 04:35:49 20.5 27 20.4
003C4AD4 2019-03-20 04:05:15 20.5 27 20.5
003C4AD4 2019-03-20 03:34:43 20.6 27 20.5
003C4AD4 2019-03-20 03:04:11 20.5 27 20.5
003C4AD4 2019-03-20 02:33:39 20.6 28 20.2
003C4AD4 2019-03-20 02:03:08 20.6 28 20.2
003C4AD4 2019-03-20 01:32:36 20.6 28 20.2
003C4AD4 2019-03-20 01:02:05 20.6 28 19.9
003C4AD4 2019-03-20 00:31:35 20.6 28 19.9
003C4AD4 2019-03-20 00:01:04 20.6 28 19.7
003C4AD4 2019-03-19 23:30:32 20.7 28 19.6
003C4AD4 2019-03-19 23:00:00 20.7 28 19.4
003C4AD4 2019-03-19 22:29:28 20.7 29 19.7
003C4AD4 2019-03-19 21:58:55 20.8 29 19.4
003C4AD4 2019-03-19 21:28:22 20.8 29 19.2
003C4AD4 2019-03-19 20:57:50 20.8 29 19.1
003C4AD4 2019-03-19 20:27:19 20.9 29 18.8
003C4AD4 2019-03-19 19:56:48 20.9 29 18.7
003C4AD4 2019-03-19 19:26:17 20.9 29 18.5
003C4AD4 2019-03-19 18:55:47 21 29 18.3
003C4AD4 2019-03-19 18:25:16 21 29 18.3
003C4AD4 2019-03-19 17:54:45 21.1 29 18.4
003C4AD4 2019-03-19 17:24:14 21.2 30 18.3
003C4AD4 2019-03-19 16:53:43 21.2 30 18
003C4AD4 2019-03-19 16:23:13 21.1 30 17.7
003C4AD4 2019-03-19 15:52:41 21.1 30 17.2
003C4AD4 2019-03-19 15:22:11 21.1 29 17
003C4AD4 2019-03-19 14:51:42 21.1 29 17.3
003C4AD4 2019-03-19 14:21:11 21.1 29 17.4
003C4AD4 2019-03-19 13:50:37 21.1 29 17.3
003C4AD4 2019-03-19 13:20:05 21.1 29 17.6
003C4AD4 2019-03-19 12:49:32 21 29 17.7
003C4AD4 2019-03-19 12:19:06 21 29 17.8
003C4AD4 2019-03-19 11:48:30 20.9 29 17.9
003C4AD4 2019-03-19 11:17:57 20.8 29 17.9
003C4AD4 2019-03-19 10:47:24 20.7 29 18.2
003C4AD4 2019-03-19 10:16:52 20.7 28 18.3
003C4AD4 2019-03-19 09:46:20 20.6 28 18
003C4AD4 2019-03-19 09:15:49 20.6 27 18.1
003C4AD4 2019-03-19 08:45:18 20.5 27 18.1
003C4AD4 2019-03-19 08:14:48 20.5 27 18.1
003C4AD4 2019-03-19 07:44:15 20.5 27 18.3
003C4AD4 2019-03-19 07:13:42 20.5 27 18.3
003C4AD4 2019-03-19 06:43:10 20.5 27 18.3
003C4AD4 2019-03-19 06:12:38 20.5 27 18.3
003C4AD4 2019-03-19 05:42:05 20.5 27 18.2
003C4AD4 2019-03-19 05:11:34 20.5 27 18.1
003C4AD4 2019-03-19 04:41:03 20.6 27 18.1
003C4AD4 2019-03-19 04:10:32 20.5 27 18.3
003C4AD4 2019-03-19 03:39:30 20.5 27 18.5
003C4AD4 2019-03-19 03:08:58 20.6 27 18.5
003C4AD4 2019-03-19 02:38:24 20.6 27 18.3
003C4AD4 2019-03-19 02:07:51 20.6 27 18.5
003C4AD4 2019-03-19 01:37:18 20.6 27 18.3
003C4AD4 2019-03-19 01:06:46 20.6 27 18.4
003C4AD4 2019-03-19 00:36:11 20.6 27 18.6
003C4AD4 2019-03-19 00:05:40 20.6 27 18.5
003C4AD4 2019-03-18 23:35:06 20.6 27 18.7
003C4AD4 2019-03-18 23:04:33 20.6 27 18.8
003C4AD4 2019-03-18 22:34:01 20.6 27 18.8
003C4AD4 2019-03-18 22:03:28 20.6 27 18.9
003C4AD4 2019-03-18 21:32:56 20.7 27 19
003C4AD4 2019-03-18 21:02:24 20.7 27 19
003C4AD4 2019-03-18 20:31:50 20.7 27 19.1
003C4AD4 2019-03-18 20:01:17 20.7 27 19
003C4AD4 2019-03-18 19:30:44 20.7 27 19.1
003C4AD4 2019-03-18 19:00:11 20.8 27 19
003C4AD4 2019-03-18 18:29:38 20.8 27 19
003C4AD4 2019-03-18 17:59:03 20.8 27 19.2
003C4AD4 2019-03-18 17:28:29 20.9 27 19.1
003C4AD4 2019-03-18 16:57:56 20.9 27 19.2
003C4AD4 2019-03-18 16:27:23 20.9 27 19.2
003C4AD4 2019-03-18 15:56:52 20.9 28 19.3
003C4AD4 2019-03-18 15:26:21 20.9 27 19.6
003C4AD4 2019-03-18 14:55:51 20.8 27 19.5
003C4AD4 2019-03-18 14:25:21 20.8 27 21.1
003C4AD4 2019-03-18 13:54:49 20.8 28 21.2
003C4AD4 2019-03-18 13:24:18 20.7 27 21.2
003C4AD4 2019-03-18 12:53:45 20.7 27 21.3
003C4AD4 2019-03-18 12:23:14 20.7 27 21.3
003C4AD4 2019-03-18 11:52:42 20.7 27 21.2
003C4AD4 2019-03-18 11:22:09 20.7 27 21.3
003C4AD4 2019-03-18 10:51:37 20.6 27 21.2
003C4AD4 2019-03-18 10:21:07 20.6 27 21
003C4AD4 2019-03-18 09:50:35 20.6 27 21.1
003C4AD4 2019-03-18 09:20:02 20.6 27 21
003C4AD4 2019-03-18 08:49:31 20.6 27 20.9
003C4AD4 2019-03-18 08:19:00 20.5 27 21
003C4AD4 2019-03-18 07:48:28 20.6 27 21
003C4AD4 2019-03-18 07:17:55 20.5 27 20.9
003C4AD4 2019-03-18 06:47:24 20.6 27 20.8
003C4AD4 2019-03-18 06:16:52 20.5 27 20.7
003C4AD4 2019-03-18 05:46:20 20.6 27 20.8
003C4AD4 2019-03-18 05:15:49 20.6 27 20.7
003C4AD4 2019-03-18 04:45:20 20.5 27 20.8
003C4AD4 2019-03-18 04:14:47 20.6 27 20.8
003C4AD4 2019-03-18 03:44:15 20.5 27 20.7
003C4AD4 2019-03-18 03:13:45 20.5 27 20.5
003C4AD4 2019-03-18 02:43:12 20.5 26 20.3
003C4AD4 2019-03-18 02:12:05 20.6 26 18.3
003C4AD4 2019-03-18 01:41:32 20.6 26 18.1
003C4AD4 2019-03-18 01:11:01 20.6 26 18
003C4AD4 2019-03-18 00:40:28 20.5 26 18
003C4AD4 2019-03-18 00:09:57 20.5 26 17.9
003C4AD4 2019-03-17 23:39:26 20.6 26 18
003C4AD4 2019-03-17 23:08:56 20.5 26 17.9
003C4AD4 2019-03-17 22:38:25 20.6 26 17.9
003C4AD4 2019-03-17 22:07:53 20.5 26 17.9
003C4AD4 2019-03-17 21:37:21 20.6 26 17.7
003C4AD4 2019-03-17 21:06:49 20.6 26 18
003C4AD4 2019-03-17 20:36:17 20.6 26 18.1
003C4AD4 2019-03-17 20:05:46 20.5 26 18
003C4AD4 2019-03-17 19:35:13 20.5 26 18
003C4AD4 2019-03-17 19:04:43 20.5 26 18.3
003C4AD4 2019-03-17 18:34:11 20.6 26 18.4
003C4AD4 2019-03-17 18:03:39 20.6 26 18.4
003C4AD4 2019-03-17 17:33:06 20.6 26 18.4
003C4AD4 2019-03-17 17:02:35 20.6 26 18.3
003C4AD4 2019-03-17 16:32:05 20.6 26 18.4
003C4AD4 2019-03-17 16:01:32 20.6 26 18.7
003C4AD4 2019-03-17 15:31:00 20.6 27 18.5
003C4AD4 2019-03-17 15:00:27 20.6 27 18.7
003C4AD4 2019-03-17 14:29:55 20.6 27 18.6
003C4AD4 2019-03-17 13:59:22 20.6 27 18.8
003C4AD4 2019-03-17 13:28:50 20.6 27 19
003C4AD4 2019-03-17 12:58:17 20.6 27 19
003C4AD4 2019-03-17 12:27:44 20.6 27 19
003C4AD4 2019-03-17 11:57:10 20.6 27 18.8
003C4AD4 2019-03-17 11:26:38 20.6 27 18.7
003C4AD4 2019-03-17 10:56:05 20.6 26 18.6
003C4AD4 2019-03-17 10:25:32 20.6 27 18.7
003C4AD4 2019-03-17 09:54:58 20.6 27 18.9
003C4AD4 2019-03-17 09:24:25 20.6 27 18.8
003C4AD4 2019-03-17 08:53:50 20.6 27 18.7
003C4AD4 2019-03-17 08:23:18 20.6 27 18.7
003C4AD4 2019-03-17 07:52:44 20.6 27 18.7
003C4AD4 2019-03-17 07:22:11 20.6 27 20.4
003C4AD4 2019-03-17 06:51:40 20.6 27 20.4
003C4AD4 2019-03-17 06:21:08 20.6 27 20.3
003C4AD4 2019-03-17 05:50:36 20.6 27 20.2
003C4AD4 2019-03-17 05:20:03 20.6 27 20.2
003C4AD4 2019-03-17 04:49:31 20.6 27 21.5
003C4AD4 2019-03-17 04:18:57 20.6 27 21.6
003C4AD4 2019-03-17 03:48:24 20.6 27 21.5
003C4AD4 2019-03-17 03:17:53 20.6 27 21.3
003C4AD4 2019-03-17 02:47:22 20.6 27 21.3
003C4AD4 2019-03-17 02:16:52 20.6 27 21.3
003C4AD4 2019-03-17 01:46:19 20.6 27 21.3
003C4AD4 2019-03-17 01:15:47 20.6 27 21.2
003C4AD4 2019-03-17 00:44:41 20.6 27 21.2
003C4AD4 2019-03-17 00:14:10 20.6 26 21.1
003C4AD4 2019-03-16 23:43:38 20.5 26 21.1
003C4AD4 2019-03-16 23:13:05 20.6 26 21.2
003C4AD4 2019-03-16 22:42:33 20.6 26 21.2
003C4AD4 2019-03-16 22:12:02 20.6 26 21.1
003C4AD4 2019-03-16 21:41:31 20.6 26 21.1
003C4AD4 2019-03-16 21:11:00 20.6 26 21.2
003C4AD4 2019-03-16 20:40:28 20.6 26 21.1
003C4AD4 2019-03-16 20:09:56 20.6 26 21
003C4AD4 2019-03-16 19:39:22 20.6 26 21
003C4AD4 2019-03-16 19:08:51 20.6 26 19.5
003C4AD4 2019-03-16 18:38:18 20.6 26 19.7
003C4AD4 2019-03-16 18:07:44 20.6 26 19.7
003C4AD4 2019-03-16 17:37:12 20.6 26 19.8
003C4AD4 2019-03-16 17:06:41 20.6 26 21.3
003C4AD4 2019-03-16 16:36:08 20.6 26 19.8
003C4AD4 2019-03-16 16:05:37 20.6 26 19.9
003C4AD4 2019-03-16 15:35:04 20.6 26 19.9
003C4AD4 2019-03-16 15:04:33 20.6 26 20
003C4AD4 2019-03-16 14:34:00 20.6 26 20
003C4AD4 2019-03-16 14:03:27 20.6 26 19.9
003C4AD4 2019-03-16 13:32:53 20.6 26 19.9
003C4AD4 2019-03-16 13:02:19 20.6 26 20
003C4AD4 2019-03-16 12:31:47 20.6 26 20
003C4AD4 2019-03-16 12:01:15 20.6 26 19.9
003C4AD4 2019-03-16 11:30:41 20.6 26 21.3
003C4AD4 2019-03-16 11:00:09 20.6 26 21.3
003C4AD4 2019-03-16 10:29:35 20.6 26 22.4
003C4AD4 2019-03-16 09:59:01 20.6 26 22.4
003C4AD4 2019-03-16 09:28:29 20.6 26 22.6
003C4AD4 2019-03-16 08:57:54 20.6 26 22.5
003C4AD4 2019-03-16 08:27:23 20.6 26 22.6
003C4AD4 2019-03-16 07:56:48 20.7 26 22.7
003C4AD4 2019-03-16 07:26:17 20.6 26 22.6
003C4AD4 2019-03-16 06:55:43 20.6 26 22.7
003C4AD4 2019-03-16 06:25:12 20.6 26 22.8
003C4AD4 2019-03-16 05:54:39 20.6 26 22.8
003C4AD4 2019-03-16 05:24:06 20.6 26 22.9
003C4AD4 2019-03-16 04:53:33 20.6 26 23
003C4AD4 2019-03-16 04:23:01 20.6 26 22.1
003C4AD4 2019-03-16 03:52:28 20.6 26 22.1
003C4AD4 2019-03-16 03:21:54 20.6 26 22.1
003C4AD4 2019-03-16 02:51:23 20.6 26 22.2
003C4AD4 2019-03-16 02:20:51 20.6 26 22.2
003C4AD4 2019-03-16 01:50:17 20.7 26 23.1
003C4AD4 2019-03-16 01:19:47 20.7 26 23.2
003C4AD4 2019-03-16 00:49:13 20.7 26 23.3
003C4AD4 2019-03-16 00:18:41 20.7 26 23.9
003C4AD4 2019-03-15 23:48:09 20.7 26 23.9
003C4AD4 2019-03-15 23:17:00 20.7 26 23.3
003C4AD4 2019-03-15 22:46:25 20.7 26 23.4
003C4AD4 2019-03-15 22:15:52 20.7 26 22.6
003C4AD4 2019-03-15 21:45:19 20.8 26 22.5
003C4AD4 2019-03-15 21:14:46 20.8 26 22.5
003C4AD4 2019-03-15 20:44:12 20.8 26 22.4
003C4AD4 2019-03-15 20:13:38 20.8 26 22.5
003C4AD4 2019-03-15 19:43:03 20.8 26 22.5
003C4AD4 2019-03-15 19:12:30 20.8 26 22.6
003C4AD4 2019-03-15 18:41:58 20.8 26 22.6
003C4AD4 2019-03-15 18:11:25 20.8 26 22.6
003C4AD4 2019-03-15 17:40:52 20.8 26 22.5
003C4AD4 2019-03-15 17:10:20 20.8 26 22.3
003C4AD4 2019-03-15 16:39:46 20.8 26 22.3
003C4AD4 2019-03-15 16:09:13 20.8 26 22.4
003C4AD4 2019-03-15 15:38:40 20.8 26 23.3
003C4AD4 2019-03-15 15:08:08 20.8 26 23.4
003C4AD4 2019-03-15 14:37:35 20.8 26 23.3
003C4AD4 2019-03-15 14:07:02 20.8 26 23.3
003C4AD4 2019-03-15 13:36:31 20.8 26 22.5
003C4AD4 2019-03-15 13:05:59 20.8 26 22.4
003C4AD4 2019-03-15 12:35:25 20.7 25 22.3
003C4AD4 2019-03-15 12:04:53 20.7 25 21.2
003C4AD4 2019-03-15 11:34:19 20.7 25 21.2
003C4AD4 2019-03-15 11:03:45 20.7 25 21.1
003C4AD4 2019-03-15 10:33:13 20.7 25 21.1
003C4AD4 2019-03-15 10:02:40 20.7 25 20.9
003C4AD4 2019-03-15 09:32:07 20.6 25 20.9
003C4AD4 2019-03-15 09:01:35 20.6 24 20.9
003C4AD4 2019-03-15 08:31:02 20.6 24 20.8
003C4AD4 2019-03-15 08:00:29 20.6 24 20.7
003C4AD4 2019-03-15 07:29:55 20.6 24 20.6
003C4AD4 2019-03-15 06:59:24 20.6 24 20.4
003C4AD4 2019-03-15 06:28:51 20.6 24 20.4
003C4AD4 2019-03-15 05:58:19 20.6 24 20.2
003C4AD4 2019-03-15 05:27:48 20.6 24 20.1
003C4AD4 2019-03-15 04:57:16 20.6 24 20.2
003C4AD4 2019-03-15 04:26:44 20.6 24 20.2
003C4AD4 2019-03-15 03:56:12 20.6 24 20.1
003C4AD4 2019-03-15 03:25:40 20.6 24 20.1
003C4AD4 2019-03-15 02:55:08 20.6 24 18.1
003C4AD4 2019-03-15 02:24:38 20.7 23 17.5
003C4AD4 2019-03-15 01:54:06 20.6 24 17.7
003C4AD4 2019-03-15 01:23:35 20.7 23 17.7
003C4AD4 2019-03-15 00:53:03 20.7 23 17.6
003C4AD4 2019-03-15 00:22:30 20.7 23 17.7
003C4AD4 2019-03-14 23:51:57 20.7 23 17.9
003C4AD4 2019-03-14 23:21:22 20.7 23 18
003C4AD4 2019-03-14 22:50:48 20.7 23 18
003C4AD4 2019-03-14 22:20:12 20.8 23 18.1
003C4AD4 2019-03-14 21:49:07 20.8 23 18.4
003C4AD4 2019-03-14 21:18:34 20.8 23 18.4
003C4AD4 2019-03-14 20:48:01 20.8 23 18.8
003C4AD4 2019-03-14 20:17:28 20.8 23 18.9
003C4AD4 2019-03-14 19:46:55 20.9 23 19
003C4AD4 2019-03-14 19:16:22 20.9 23 19
003C4AD4 2019-03-14 18:45:48 20.9 23 19.3
003C4AD4 2019-03-14 18:15:13 20.9 23 19.4
003C4AD4 2019-03-14 17:44:40 20.9 23 19.4
003C4AD4 2019-03-14 17:14:07 20.9 23 19.4
003C4AD4 2019-03-14 16:43:34 20.9 23 20.9
003C4AD4 2019-03-14 16:13:00 20.9 23 21.1
003C4AD4 2019-03-14 15:42:28 20.9 23 21.2
003C4AD4 2019-03-14 15:11:57 20.9 23 21.2
003C4AD4 2019-03-14 14:41:28 20.9 23 21.4
003C4AD4 2019-03-14 14:10:57 20.9 23 21.6
003C4AD4 2019-03-14 13:40:26 20.9 23 21.6
003C4AD4 2019-03-14 13:09:52 20.8 22 21.7
003C4AD4 2019-03-14 12:39:21 20.8 22 21.9
003C4AD4 2019-03-14 12:08:48 20.8 22 21.9
003C4AD4 2019-03-14 11:38:16 20.8 22 22
003C4AD4 2019-03-14 11:07:44 20.7 21 22
003C4AD4 2019-03-14 10:37:11 20.7 21 22.1
003C4AD4 2019-03-14 10:06:37 20.7 21 22.2
003C4AD4 2019-03-14 09:36:06 20.7 20 22.3
003C4AD4 2019-03-14 09:05:35 20.6 20 22.3
003C4AD4 2019-03-14 05:01:17 20.6 18 22.4
003C4AD4 2019-03-14 04:30:44 20.6 18 22.3
003C4AD4 2019-03-14 04:00:12 20.6 18 21.3
003C4AD4 2019-03-14 03:29:39 20.6 18 21.3
003C4AD4 2019-03-14 02:59:07 20.6 18 21.2
003C4AD4 2019-03-14 02:28:34 20.6 17 21
003C4AD4 2019-03-14 01:58:02 20.6 17 22
003C4AD4 2019-03-14 01:27:30 20.6 17 21.9
003C4AD4 2019-03-14 00:56:58 20.6 17 21.8
003C4AD4 2019-03-14 00:26:26 20.6 17 21.7
003C4AD4 2019-03-13 23:55:54 20.6 17 21.6
003C4AD4 2019-03-13 23:25:22 20.6 17 21.5
003C4AD4 2019-03-13 22:54:48 20.6 17 21.4
003C4AD4 2019-03-13 22:24:16 20.6 17 21.3
003C4AD4 2019-03-13 21:53:44 20.7 17 21.4
003C4AD4 2019-03-13 21:23:12 20.7 17 21.3
003C4AD4 2019-03-13 20:52:39 20.7 17 21.2
003C4AD4 2019-03-13 20:21:34 20.7 16 22.3
003C4AD4 2019-03-13 19:51:01 20.7 16 22.2
003C4AD4 2019-03-13 19:20:30 20.8 16 22.3
003C4AD4 2019-03-13 18:49:58 20.8 16 22.4
003C4AD4 2019-03-13 18:19:28 20.9 16 22.5
003C4AD4 2019-03-13 17:48:56 20.9 16 22.6
003C4AD4 2019-03-13 17:18:24 20.9 16 22.6
003C4AD4 2019-03-13 16:47:53 20.9 16 22.6
003C4AD4 2019-03-13 16:17:21 20.9 16 22.8
003C4AD4 2019-03-13 15:46:49 20.9 16 22.8
003C4AD4 2019-03-13 15:16:17 20.9 16 22.8
003C4AD4 2019-03-13 14:45:45 20.8 16 23.6
003C4AD4 2019-03-13 14:15:13 20.8 16 23.7
003C4AD4 2019-03-13 13:44:40 20.8 16 23.1
003C4AD4 2019-03-13 13:14:08 20.8 16 23.2
003C4AD4 2019-03-13 12:43:35 20.8 16 23.3
003C4AD4 2019-03-13 12:13:02 20.7 16 23.5
003C4AD4 2019-03-13 11:42:31 20.7 16 23.6
003C4AD4 2019-03-13 11:11:58 20.7 16 23.7
003C4AD4 2019-03-13 10:41:25 20.6 16 23.8
003C4AD4 2019-03-13 10:10:53 20.5 16 23.8
003C4AD4 2019-03-13 09:40:21 20.4 16 23.8
003C4AD4 2019-03-13 09:09:49 20.3 15 23.9
003C4AD4 2019-03-13 08:39:17 20.3 15 24
003C4AD4 2019-03-13 08:08:46 20.3 15 24
003C4AD4 2019-03-13 07:38:14 20.3 15 23.3
003C4AD4 2019-03-13 07:07:42 20.4 16 23.3
003C4AD4 2019-03-13 06:37:09 20.4 16 23.3
003C4AD4 2019-03-13 06:06:36 20.4 16 23.2
003C4AD4 2019-03-13 05:36:04 20.4 16 23.1
003C4AD4 2019-03-13 05:05:32 20.4 16 23.1
003C4AD4 2019-03-13 04:35:00 20.4 16 23.2
003C4AD4 2019-03-13 04:04:26 20.4 16 23.2
003C4AD4 2019-03-13 03:33:53 20.4 16 23
003C4AD4 2019-03-13 03:03:22 20.4 16 23.1
003C4AD4 2019-03-13 02:32:46 20.5 16 23.1
003C4AD4 2019-03-13 02:02:12 20.5 16 22.3
003C4AD4 2019-03-13 01:31:37 20.5 16 23.1
003C4AD4 2019-03-13 01:01:03 20.5 16 22.9
003C4AD4 2019-03-13 00:30:30 20.5 16 22.8
003C4AD4 2019-03-12 23:59:56 20.5 16 22.8
003C4AD4 2019-03-12 23:29:22 20.5 16 22.6
003C4AD4 2019-03-12 22:58:49 20.5 16 22.5
003C4AD4 2019-03-12 22:28:14 20.6 16 23.2
003C4AD4 2019-03-12 21:57:40 20.6 16 23.2
003C4AD4 2019-03-12 21:27:05 20.6 16 23.9
003C4AD4 2019-03-12 20:56:32 20.6 16 24.4
003C4AD4 2019-03-12 20:26:01 20.6 16 24.9
003C4AD4 2019-03-12 19:55:28 20.6 16 25.3
003C4AD4 2019-03-12 19:24:56 20.7 16 25.7
003C4AD4 2019-03-12 18:53:50 20.7 16 26.5
003C4AD4 2019-03-12 18:23:17 20.7 16 26.8
003C4AD4 2019-03-12 17:52:46 20.7 16 27.1
003C4AD4 2019-03-12 17:22:14 20.7 16 27.4
003C4AD4 2019-03-12 16:51:43 20.7 16 27.7
003C4AD4 2019-03-12 16:21:10 20.7 16 27.9
003C4AD4 2019-03-12 15:50:36 20.7 16 28.1
003C4AD4 2019-03-12 15:20:04 20.6 16 28.4
003C4AD4 2019-03-12 14:49:32 20.6 16 28.6
003C4AD4 2019-03-12 14:19:01 20.6 16 28.8
003C4AD4 2019-03-12 13:48:29 20.6 16 28.8
003C4AD4 2019-03-12 13:17:57 20.6 16 28.8
003C4AD4 2019-03-12 12:47:27 20.6 16 29
003C4AD4 2019-03-12 12:16:56 20.5 16 29.2
003C4AD4 2019-03-12 11:46:26 20.5 16 29.4
003C4AD4 2019-03-12 11:15:54 20.5 16 29.5
003C4AD4 2019-03-12 10:45:24 20.4 16 29.7
003C4AD4 2019-03-12 10:14:54 20.4 16 29.7
003C4AD4 2019-03-12 09:44:22 20.3 16 29.9
003C4AD4 2019-03-12 09:13:51 20.3 16 29.9
003C4AD4 2019-03-12 08:43:20 20.3 16 29.9
003C4AD4 2019-03-12 08:12:50 20.4 16 29.9
003C4AD4 2019-03-12 07:42:18 20.4 16 29.9
003C4AD4 2019-03-12 07:11:48 20.4 16 29.9
003C4AD4 2019-03-12 06:41:17 20.4 16 29.9
003C4AD4 2019-03-12 06:10:45 20.4 16 29.9
003C4AD4 2019-03-12 05:40:14 20.4 16 29.9
003C4AD4 2019-03-12 05:09:43 20.4 16 29.9
003C4AD4 2019-03-12 04:39:11 20.4 16 29.9
003C4AD4 2019-03-12 04:08:40 20.4 16 29.9
003C4AD4 2019-03-12 03:38:11 20.4 17 29.7
003C4AD4 2019-03-12 03:07:40 20.4 17 29.5
003C4AD4 2019-03-12 02:37:08 20.4 17 29.4
003C4AD4 2019-03-12 02:06:38 20.5 17 29.2
003C4AD4 2019-03-12 01:36:07 20.5 17 29
003C4AD4 2019-03-12 01:05:36 20.5 17 29.1
003C4AD4 2019-03-12 00:35:05 20.5 17 29
003C4AD4 2019-03-12 00:04:33 20.5 17 28.8
003C4AD4 2019-03-11 23:34:00 20.5 17 28.6
003C4AD4 2019-03-11 23:03:28 20.5 17 28.3
003C4AD4 2019-03-11 22:32:56 20.6 17 28.1
003C4AD4 2019-03-11 22:02:25 20.6 17 27.9
003C4AD4 2019-03-11 21:31:54 20.6 17 27.3
003C4AD4 2019-03-11 21:01:22 20.6 17 27
003C4AD4 2019-03-11 20:30:51 20.7 17 26.7
003C4AD4 2019-03-11 20:00:20 20.7 17 26.3
003C4AD4 2019-03-11 19:29:49 20.7 17 25.9
003C4AD4 2019-03-11 18:59:19 20.7 17 25.5
003C4AD4 2019-03-11 18:28:46 20.7 17 25
003C4AD4 2019-03-11 17:58:16 20.8 17 24.5
003C4AD4 2019-03-11 17:27:13 20.7 17 23.1
003C4AD4 2019-03-11 16:56:42 20.7 17 22.3
003C4AD4 2019-03-11 16:26:09 20.7 17 21.4
003C4AD4 2019-03-11 15:55:39 20.7 17 21.4
003C4AD4 2019-03-11 15:25:09 20.6 17 21.4
003C4AD4 2019-03-11 14:54:37 20.6 17 21.4
003C4AD4 2019-03-11 14:24:04 20.6 17 21.6
003C4AD4 2019-03-11 13:53:31 20.5 17 21.7
003C4AD4 2019-03-11 13:22:59 20.5 17 20.6
003C4AD4 2019-03-11 12:52:26 20.5 17 20.4
003C4AD4 2019-03-11 12:21:52 20.5 17 20.4
003C4AD4 2019-03-11 11:51:19 20.5 17 20.5
003C4AD4 2019-03-11 11:20:47 20.4 17 20.6
003C4AD4 2019-03-11 10:50:17 20.4 18 20.6
003C4AD4 2019-03-11 10:19:46 20.4 18 20.6
003C4AD4 2019-03-11 09:49:16 20.4 18 20.6
003C4AD4 2019-03-11 09:18:44 20.3 18 20.7
003C4AD4 2019-03-11 08:48:12 20.3 18 20.8
003C4AD4 2019-03-11 08:17:41 20.3 18 20.8
003C4AD4 2019-03-11 07:47:10 20.4 18 20.9
003C4AD4 2019-03-11 07:16:39 20.4 19 21
003C4AD4 2019-03-11 06:46:08 20.4 19 20.9
003C4AD4 2019-03-11 06:15:36 20.3 19 21.1
003C4AD4 2019-03-11 05:45:04 20.4 19 21.1
003C4AD4 2019-03-11 05:14:34 20.4 19 21.1
003C4AD4 2019-03-11 04:44:01 20.4 19 21.2
003C4AD4 2019-03-11 04:13:32 20.4 19 21.2
003C4AD4 2019-03-11 03:42:59 20.4 19 21.1
003C4AD4 2019-03-11 03:12:29 20.4 19 21.1
003C4AD4 2019-03-11 02:41:59 20.4 19 21
003C4AD4 2019-03-11 02:11:29 20.4 20 21.2
003C4AD4 2019-03-11 01:41:01 20.4 20 21.1
003C4AD4 2019-03-11 01:10:30 20.4 20 21.2
003C4AD4 2019-03-11 00:39:58 20.5 20 21.2
003C4AD4 2019-03-11 00:09:27 20.5 20 21.2
003C4AD4 2019-03-10 23:38:56 20.5 20 21.3
003C4AD4 2019-03-10 23:08:25 20.5 20 21.2
003C4AD4 2019-03-10 22:37:55 20.5 20 21.4
003C4AD4 2019-03-10 22:07:26 20.5 20 21.4
003C4AD4 2019-03-10 21:36:53 20.5 20 21.3
003C4AD4 2019-03-10 21:06:20 20.6 21 21.3
003C4AD4 2019-03-10 20:35:50 20.6 21 21.3
003C4AD4 2019-03-10 20:05:19 20.6 21 21.2
003C4AD4 2019-03-10 19:34:47 20.6 21 21.3
003C4AD4 2019-03-10 19:04:17 20.6 21 21.3
003C4AD4 2019-03-10 18:33:45 20.6 21 21.2
003C4AD4 2019-03-10 18:03:13 20.6 21 21.2
003C4AD4 2019-03-10 17:32:41 20.7 21 21.3
003C4AD4 2019-03-10 17:02:10 20.7 22 21.3
003C4AD4 2019-03-10 16:31:38 20.7 22 21.3
003C4AD4 2019-03-10 16:00:38 20.6 22 22.3
003C4AD4 2019-03-10 15:30:06 20.6 22 22.3
003C4AD4 2019-03-10 14:59:36 20.6 23 22.3
003C4AD4 2019-03-10 14:29:04 20.6 23 22.3
003C4AD4 2019-03-10 13:58:34 20.5 24 22.2
003C4AD4 2019-03-10 13:28:03 20.6 24 22.2
003C4AD4 2019-03-10 12:57:33 20.5 24 22.1
003C4AD4 2019-03-10 12:27:00 20.5 24 22.1
003C4AD4 2019-03-10 11:56:30 20.5 24 22.1
003C4AD4 2019-03-10 11:26:01 20.5 24 22
003C4AD4 2019-03-10 10:55:31 20.5 24 22.1
003C4AD4 2019-03-10 10:25:01 20.5 24 22
003C4AD4 2019-03-10 09:54:32 20.5 24 22
003C4AD4 2019-03-10 09:24:02 20.5 24 22
003C4AD4 2019-03-10 08:53:31 20.5 24 22
003C4AD4 2019-03-10 08:23:00 20.5 24 22.2
003C4AD4 2019-03-10 07:52:27 20.5 24 22.2
003C4AD4 2019-03-10 07:21:55 20.5 24 22.2
003C4AD4 2019-03-10 06:51:22 20.5 24 22.1
003C4AD4 2019-03-10 06:20:49 20.5 24 22.1
003C4AD4 2019-03-10 05:50:18 20.6 24 22.2
003C4AD4 2019-03-10 05:19:47 20.5 24 22.2
003C4AD4 2019-03-10 04:49:17 20.6 24 22.2
003C4AD4 2019-03-10 04:18:44 20.5 24 22.2
003C4AD4 2019-03-10 03:48:14 20.5 24 21.3
003C4AD4 2019-03-10 03:17:41 20.6 24 21.2
003C4AD4 2019-03-10 02:47:09 20.6 24 21.1
003C4AD4 2019-03-10 02:16:37 20.6 24 21.2
003C4AD4 2019-03-10 01:46:03 20.6 24 21.1
003C4AD4 2019-03-10 01:15:31 20.6 24 21.2
003C4AD4 2019-03-10 00:44:59 20.6 24 21.1
003C4AD4 2019-03-10 00:14:27 20.6 24 21.1
003C4AD4 2019-03-09 23:43:56 20.6 24 21.1
003C4AD4 2019-03-09 23:13:25 20.6 24 21.1
003C4AD4 2019-03-09 22:42:54 20.6 24 21
003C4AD4 2019-03-09 22:12:24 20.6 24 21.1
003C4AD4 2019-03-09 21:41:54 20.6 23 21.2
003C4AD4 2019-03-09 21:11:23 20.6 23 21.1
003C4AD4 2019-03-09 20:40:51 20.7 23 21
003C4AD4 2019-03-09 20:10:19 20.6 23 21
003C4AD4 2019-03-09 19:39:47 20.7 23 21
003C4AD4 2019-03-09 19:09:17 20.7 23 21
003C4AD4 2019-03-09 18:38:45 20.7 23 20.9
003C4AD4 2019-03-09 18:08:14 20.7 23 21.1
003C4AD4 2019-03-09 17:37:44 20.7 23 21.1
003C4AD4 2019-03-09 17:07:12 20.8 23 21.1
003C4AD4 2019-03-09 16:36:41 20.8 24 21.2
003C4AD4 2019-03-09 16:06:08 20.7 24 21.1
003C4AD4 2019-03-09 15:35:35 20.7 24 20.9
003C4AD4 2019-03-09 15:05:02 20.7 24 20.8
003C4AD4 2019-03-09 14:33:57 20.6 24 21
003C4AD4 2019-03-09 14:03:25 20.7 24 20.8
003C4AD4 2019-03-09 13:32:54 20.7 24 20.7
003C4AD4 2019-03-09 13:02:22 20.6 24 20.6
003C4AD4 2019-03-09 12:31:50 20.6 24 20.8
003C4AD4 2019-03-09 12:01:16 20.6 24 20.9
003C4AD4 2019-03-09 11:30:45 20.6 24 20.9
003C4AD4 2019-03-09 11:00:13 20.6 24 20.7
003C4AD4 2019-03-09 10:29:42 20.6 25 20.9
003C4AD4 2019-03-09 09:59:12 20.6 25 20.9
003C4AD4 2019-03-09 09:28:41 20.6 25 20.7
003C4AD4 2019-03-09 08:58:09 20.6 25 20.7
003C4AD4 2019-03-09 08:27:39 20.6 25 20.9
003C4AD4 2019-03-09 07:57:07 20.6 25 20.9
003C4AD4 2019-03-09 07:26:37 20.6 25 21
003C4AD4 2019-03-09 06:56:05 20.6 26 21
003C4AD4 2019-03-09 06:25:33 20.6 26 21.1
003C4AD4 2019-03-09 05:55:02 20.6 26 21.1
003C4AD4 2019-03-09 05:24:31 20.7 26 21
003C4AD4 2019-03-09 04:53:59 20.7 26 20.9
003C4AD4 2019-03-09 04:23:28 20.7 26 20.6
003C4AD4 2019-03-09 03:52:58 20.7 26 20.8
003C4AD4 2019-03-09 03:22:28 20.7 26 20.7
003C4AD4 2019-03-09 02:51:59 20.7 26 20.5
003C4AD4 2019-03-09 02:21:27 20.7 26 20.7
003C4AD4 2019-03-09 01:51:02 20.7 26 20.7
003C4AD4 2019-03-09 01:20:30 20.8 26 20.8
003C4AD4 2019-03-09 00:49:57 20.8 26 20.6
003C4AD4 2019-03-09 00:19:26 20.8 26 20.5
003C4AD4 2019-03-08 23:48:55 20.8 26 21.5
003C4AD4 2019-03-08 23:18:25 20.9 26 21.4
003C4AD4 2019-03-08 22:47:55 20.9 26 21.4
003C4AD4 2019-03-08 22:17:24 20.9 26 21.2
003C4AD4 2019-03-08 21:46:53 20.9 26 21.2
003C4AD4 2019-03-08 21:16:23 21 26 21.2
003C4AD4 2019-03-08 20:45:52 21 26 21.2
003C4AD4 2019-03-08 20:15:20 21 26 21.2
003C4AD4 2019-03-08 19:44:49 21 26 21.1
003C4AD4 2019-03-08 19:14:19 21 26 21.1
003C4AD4 2019-03-08 18:43:47 21 26 21.1
003C4AD4 2019-03-08 18:13:15 21 26 21.1
003C4AD4 2019-03-08 17:42:43 21.1 26 21.1
003C4AD4 2019-03-08 17:12:11 21.1 26 21.2
003C4AD4 2019-03-08 16:41:39 21.1 27 21.3
003C4AD4 2019-03-08 16:11:08 21.1 26 21.4
003C4AD4 2019-03-08 15:40:41 21 26 21.7
003C4AD4 2019-03-08 15:10:07 21 26 21.7
003C4AD4 2019-03-08 14:39:32 21 26 21.8
003C4AD4 2019-03-08 14:09:02 21 26 21.7
003C4AD4 2019-03-08 13:38:32 20.9 25 21.8
003C4AD4 2019-03-08 13:07:28 20.9 26 21.9
003C4AD4 2019-03-08 12:36:55 20.8 25 22.1
003C4AD4 2019-03-08 12:06:23 20.8 25 21
003C4AD4 2019-03-08 11:35:52 20.8 25 21.3
003C4AD4 2019-03-08 11:05:23 20.8 25 21.5
003C4AD4 2019-03-08 10:34:53 20.8 24 21.6
003C4AD4 2019-03-08 10:04:23 20.8 24 21.6
003C4AD4 2019-03-08 09:33:49 20.7 24 21.6
003C4AD4 2019-03-08 09:03:16 20.7 24 21.7
003C4AD4 2019-03-08 08:32:43 20.7 23 21.7
003C4AD4 2019-03-08 08:02:12 20.7 23 21.8
003C4AD4 2019-03-08 07:31:41 20.7 23 21.7
003C4AD4 2019-03-08 07:01:08 20.7 23 21.6
003C4AD4 2019-03-08 06:30:34 20.7 23 21.5
003C4AD4 2019-03-08 06:00:02 20.7 23 21.4
003C4AD4 2019-03-08 05:29:29 20.7 23 21.5
003C4AD4 2019-03-08 04:58:58 20.7 23 21.5
003C4AD4 2019-03-08 04:28:26 20.7 22 21.4
003C4AD4 2019-03-08 03:57:56 20.7 22 21.2
003C4AD4 2019-03-08 03:27:23 20.7 22 21.4
003C4AD4 2019-03-08 02:56:52 20.7 22 21.5
003C4AD4 2019-03-08 02:26:20 20.7 22 22.5
003C4AD4 2019-03-08 01:55:47 20.7 22 22.5
003C4AD4 2019-03-08 01:25:14 20.8 22 22.5
003C4AD4 2019-03-08 00:54:40 20.8 22 22.6
003C4AD4 2019-03-08 00:24:08 20.8 22 22.5
003C4AD4 2019-03-07 23:53:34 20.8 22 22.6
003C4AD4 2019-03-07 23:23:02 20.8 22 22.4
003C4AD4 2019-03-07 22:52:29 20.8 22 22.3
003C4AD4 2019-03-07 22:21:56 20.9 22 22.2
003C4AD4 2019-03-07 21:51:23 20.9 21 22
003C4AD4 2019-03-07 21:20:52 20.9 21 21.9
003C4AD4 2019-03-07 20:50:20 20.9 21 21.8
003C4AD4 2019-03-07 20:19:49 20.9 21 21.6
003C4AD4 2019-03-07 19:49:18 21 21 21.6
003C4AD4 2019-03-07 19:18:45 21 21 21.7
003C4AD4 2019-03-07 18:48:14 21.1 21 21.6
003C4AD4 2019-03-07 18:17:43 21.1 21 21.6
003C4AD4 2019-03-07 17:47:12 21.1 21 21.6
003C4AD4 2019-03-07 17:16:40 21.2 21 21.6
003C4AD4 2019-03-07 16:46:07 21.2 21 21.4
003C4AD4 2019-03-07 16:15:37 21.1 21 21.3
003C4AD4 2019-03-07 15:45:05 21.1 20 21.5
003C4AD4 2019-03-07 15:14:34 21.1 20 21.3
003C4AD4 2019-03-07 14:44:03 21.1 20 21.1
003C4AD4 2019-03-07 14:13:32 21 19 21
003C4AD4 2019-03-07 13:43:00 21 19 19.7
003C4AD4 2019-03-07 13:12:29 21 19 19.6
003C4AD4 2019-03-07 12:41:57 20.9 18 19.4
003C4AD4 2019-03-07 12:11:24 20.9 18 19.4
003C4AD4 2019-03-07 11:40:19 20.9 18 19.1
003C4AD4 2019-03-07 11:09:46 20.8 17 19.2
003C4AD4 2019-03-07 10:39:15 20.7 17 19.2
003C4AD4 2019-03-07 10:08:43 20.7 17 19.4
003C4AD4 2019-03-07 09:38:12 20.7 16 19.6
003C4AD4 2019-03-07 09:07:41 20.7 16 19.8
003C4AD4 2019-03-07 08:37:11 20.7 15 19.7
003C4AD4 2019-03-07 08:06:39 20.7 15 19.9
003C4AD4 2019-03-07 07:36:07 20.7 15 19.8
003C4AD4 2019-03-07 07:05:38 20.7 14 19.5
003C4AD4 2019-03-07 06:35:08 20.7 14 19.7
003C4AD4 2019-03-07 06:04:36 20.7 14 19.9
003C4AD4 2019-03-07 05:34:04 20.7 14 19.9
003C4AD4 2019-03-07 05:03:33 20.7 14 19.7
003C4AD4 2019-03-07 04:33:02 20.7 14 19.8
003C4AD4 2019-03-07 04:02:31 20.7 14 19.9
003C4AD4 2019-03-07 03:31:59 20.7 13 19.9
003C4AD4 2019-03-07 03:01:27 20.7 13 20
003C4AD4 2019-03-07 02:30:57 20.7 13 20.1
003C4AD4 2019-03-07 02:00:26 20.7 13 20
003C4AD4 2019-03-07 01:29:56 20.7 13 19.9
003C4AD4 2019-03-07 00:59:24 20.7 13 19.8
003C4AD4 2019-03-07 00:28:53 20.7 13 19.6
003C4AD4 2019-03-06 23:58:22 20.7 13 19.7
003C4AD4 2019-03-06 23:27:50 20.7 12 19.7
003C4AD4 2019-03-06 22:57:18 20.7 12 19.4
003C4AD4 2019-03-06 22:26:49 20.7 12 19.4
003C4AD4 2019-03-06 21:56:16 20.7 12 19.3
003C4AD4 2019-03-06 21:25:45 20.7 12 19.2
003C4AD4 2019-03-06 20:55:13 20.8 12 19.3
003C4AD4 2019-03-06 20:24:40 20.8 12 19.4
003C4AD4 2019-03-06 19:54:09 20.8 12 19.3
003C4AD4 2019-03-06 19:23:37 20.8 12 19.5
003C4AD4 2019-03-06 18:53:07 20.8 12 19.5
003C4AD4 2019-03-06 18:22:36 20.9 12 19.2
003C4AD4 2019-03-06 17:52:04 20.9 12 19.3
003C4AD4 2019-03-06 17:21:32 20.9 12 19.4
003C4AD4 2019-03-06 16:50:58 20.9 12 19.4
003C4AD4 2019-03-06 16:20:27 20.9 12 19.7
003C4AD4 2019-03-06 15:49:56 20.9 12 19.6
003C4AD4 2019-03-06 15:19:24 20.9 12 19.5
003C4AD4 2019-03-06 14:48:52 20.8 12 19.8
003C4AD4 2019-03-06 14:18:20 20.7 12 19.8
003C4AD4 2019-03-06 13:47:51 20.7 12 19.8
003C4AD4 2019-03-06 13:17:20 20.6 12 20
003C4AD4 2019-03-06 12:46:52 20.6 12 20
003C4AD4 2019-03-06 12:16:21 20.6 12 20
003C4AD4 2019-03-06 11:45:49 20.6 12 20.2
003C4AD4 2019-03-06 11:15:17 20.6 12 20.3
003C4AD4 2019-03-06 10:44:46 20.5 12 20.4
003C4AD4 2019-03-06 10:13:41 20.5 12 20.8
003C4AD4 2019-03-06 09:43:10 20.4 12 20.9
003C4AD4 2019-03-06 09:12:39 20.4 12 20.9
003C4AD4 2019-03-06 08:42:06 20.4 12 20.8
003C4AD4 2019-03-06 08:11:34 20.5 13 20.9
003C4AD4 2019-03-06 07:41:01 20.5 13 20.9
003C4AD4 2019-03-06 07:10:29 20.5 13 20.9
003C4AD4 2019-03-06 06:39:58 20.5 13 21
003C4AD4 2019-03-06 06:09:25 20.5 13 21.1
003C4AD4 2019-03-06 05:38:55 20.5 13 21
003C4AD4 2019-03-06 05:08:23 20.5 13 20.9
003C4AD4 2019-03-06 04:37:50 20.5 13 20.9
003C4AD4 2019-03-06 04:07:16 20.5 13 20.9
003C4AD4 2019-03-06 03:36:43 20.6 13 20.8
003C4AD4 2019-03-06 03:06:10 20.6 13 20.7
003C4AD4 2019-03-06 02:35:41 20.6 13 20.7
003C4AD4 2019-03-06 02:05:08 20.6 13 20.7
003C4AD4 2019-03-06 01:34:35 20.7 14 20.6
003C4AD4 2019-03-06 01:04:03 20.7 14 20.3
003C4AD4 2019-03-06 00:33:32 20.7 14 20.2
003C4AD4 2019-03-06 00:03:01 20.7 14 20.3
003C4AD4 2019-03-05 23:32:28 20.7 14 20.2
003C4AD4 2019-03-05 23:01:56 20.8 14 20
003C4AD4 2019-03-05 22:31:25 20.8 14 20
003C4AD4 2019-03-05 22:00:52 20.8 14 20
003C4AD4 2019-03-05 21:30:19 20.8 14 19.7
003C4AD4 2019-03-05 20:59:48 20.9 14 19.8
003C4AD4 2019-03-05 20:29:18 20.9 14 19.7
003C4AD4 2019-03-05 19:58:47 20.9 14 19.8
003C4AD4 2019-03-05 19:28:17 20.9 14 19.6
003C4AD4 2019-03-05 18:57:48 20.9 15 19.4
003C4AD4 2019-03-05 18:27:17 20.9 15 19.2
003C4AD4 2019-03-05 17:56:45 21 15 19.2
003C4AD4 2019-03-05 17:26:13 21 15 19.1
003C4AD4 2019-03-05 16:55:40 21 15 19
003C4AD4 2019-03-05 16:25:06 20.9 16 19
003C4AD4 2019-03-05 15:54:33 20.9 16 18.9
003C4AD4 2019-03-05 15:24:02 20.8 16 18.7
003C4AD4 2019-03-05 14:53:30 20.7 17 18.9
003C4AD4 2019-03-05 14:22:59 20.6 17 18.9
003C4AD4 2019-03-05 13:52:28 20.6 17 18.8
003C4AD4 2019-03-05 13:21:57 20.6 17 18.5
003C4AD4 2019-03-05 12:51:25 20.6 17 20.3
003C4AD4 2019-03-05 12:20:54 20.5 18 20.4
003C4AD4 2019-03-05 11:50:20 20.5 18 20.4
003C4AD4 2019-03-05 11:19:54 20.5 18 20.3
003C4AD4 2019-03-05 10:49:19 20.5 18 20.3
003C4AD4 2019-03-05 10:18:48 20.5 18 20.3
003C4AD4 2019-03-05 09:48:13 20.5 18 20.4
003C4AD4 2019-03-05 09:17:40 20.7 18 20.5
003C4AD4 2019-03-05 09:16:29 20.5 18 20.6
003C4AD4 2019-03-05 08:45:58 20.5 18 20.4
003C4AD4 2019-03-05 08:15:27 20.5 19 20.5
003C4AD4 2019-03-05 07:44:53 20.5 19 20.5
003C4AD4 2019-03-05 07:14:21 20.5 19 20.6
003C4AD4 2019-03-05 06:43:50 20.5 19 20.8
003C4AD4 2019-03-05 06:13:18 20.5 19 20.8
003C4AD4 2019-03-05 05:42:47 20.5 19 21.9
003C4AD4 2019-03-05 05:12:17 20.5 19 21.9
003C4AD4 2019-03-05 04:41:45 20.5 19 21.9
003C4AD4 2019-03-05 04:11:17 20.5 19 21.9
003C4AD4 2019-03-05 03:40:43 20.5 19 21.9
003C4AD4 2019-03-05 03:10:11 20.5 19 22
003C4AD4 2019-03-05 02:39:41 20.5 19 21.9
003C4AD4 2019-03-05 02:09:08 20.5 19 22
003C4AD4 2019-03-05 01:38:37 20.5 19 21.9
003C4AD4 2019-03-05 01:08:07 20.5 18 21.9
003C4AD4 2019-03-05 00:37:37 20.5 18 20.6
003C4AD4 2019-03-05 00:07:06 20.6 18 20.9
003C4AD4 2019-03-04 23:36:35 20.5 18 21
003C4AD4 2019-03-04 23:06:04 20.5 18 21
003C4AD4 2019-03-04 22:35:33 20.5 18 20.9
003C4AD4 2019-03-04 22:05:01 20.5 18 20.9
003C4AD4 2019-03-04 21:34:29 20.6 18 20.8
003C4AD4 2019-03-04 21:03:57 20.5 18 20.6
003C4AD4 2019-03-04 20:33:25 20.5 18 20.6
003C4AD4 2019-03-04 20:02:54 20.6 18 20.6
003C4AD4 2019-03-04 19:32:23 20.5 18 20.5
003C4AD4 2019-03-04 19:01:52 20.5 18 20.5
003C4AD4 2019-03-04 18:31:22 20.5 18 20.5
003C4AD4 2019-03-04 18:00:52 20.5 18 20.5
003C4AD4 2019-03-04 17:30:21 20.6 18 20.5
003C4AD4 2019-03-04 16:59:49 20.5 18 18.9
003C4AD4 2019-03-04 16:29:18 20.5 18 19
003C4AD4 2019-03-04 15:58:47 20.5 18 18.9
003C4AD4 2019-03-04 15:28:14 20.4 17 18.9
003C4AD4 2019-03-04 14:57:45 20.4 17 19.1
003C4AD4 2019-03-04 14:27:12 20.4 17 19
003C4AD4 2019-03-04 13:56:39 20.4 17 19.2
003C4AD4 2019-03-04 13:26:07 20.3 17 19.2
003C4AD4 2019-03-04 12:55:37 20.3 17 19.3
003C4AD4 2019-03-04 12:25:08 20.3 17 19.4
003C4AD4 2019-03-04 11:54:36 20.2 17 21
003C4AD4 2019-03-04 11:24:05 20.2 17 21
003C4AD4 2019-03-04 10:53:36 20.2 17 22.1
003C4AD4 2019-03-04 10:23:08 20.1 17 22.1
003C4AD4 2019-03-04 09:52:36 20.1 17 22.1
003C4AD4 2019-03-04 09:22:05 20.1 17 22
003C4AD4 2019-03-04 08:51:35 20 17 22
003C4AD4 2019-03-04 08:21:02 20 18 22.2
003C4AD4 2019-03-04 07:49:59 20 18 22.3
003C4AD4 2019-03-04 07:19:28 20.1 18 22.4
003C4AD4 2019-03-04 06:48:56 20.1 18 22.4
003C4AD4 2019-03-04 06:18:26 20.1 18 22.5
003C4AD4 2019-03-04 05:47:55 20.1 18 22.5
003C4AD4 2019-03-04 05:17:22 20.1 18 22.5
003C4AD4 2019-03-04 04:46:50 20.1 18 22.5
003C4AD4 2019-03-04 04:16:18 20.1 18 22.5
003C4AD4 2019-03-04 03:45:45 20.1 18 22.7
003C4AD4 2019-03-04 03:15:13 20.1 18 22.7
003C4AD4 2019-03-04 02:44:42 20.1 18 22.7
003C4AD4 2019-03-04 02:14:09 20.1 18 22.8
003C4AD4 2019-03-04 01:43:36 20.1 18 22.7
003C4AD4 2019-03-04 01:13:03 20.1 18 22.6
003C4AD4 2019-03-04 00:42:31 20.1 18 22.7
003C4AD4 2019-03-04 00:12:02 20.1 18 22.7
003C4AD4 2019-03-03 23:41:28 20.1 17 21.8
003C4AD4 2019-03-03 23:10:55 20.1 18 21.8
003C4AD4 2019-03-03 22:40:23 20.1 18 20.7
003C4AD4 2019-03-03 22:09:52 20.1 18 20.9
003C4AD4 2019-03-03 21:39:21 20.1 18 21.1
003C4AD4 2019-03-03 21:08:48 20.1 18 21.3
003C4AD4 2019-03-03 20:38:17 20.1 18 21.5
003C4AD4 2019-03-03 20:07:45 20.1 18 21.5
003C4AD4 2019-03-03 19:37:13 20.2 18 21.5
003C4AD4 2019-03-03 19:06:40 20.2 18 21.4
003C4AD4 2019-03-03 18:36:09 20.2 18 21.5
003C4AD4 2019-03-03 18:05:37 20.2 18 21.5
003C4AD4 2019-03-03 17:35:05 20.2 18 21.4
003C4AD4 2019-03-03 17:04:35 20.2 18 21.3
003C4AD4 2019-03-03 16:34:04 20.2 18 21.4
003C4AD4 2019-03-03 16:03:33 20.2 18 21.4
003C4AD4 2019-03-03 15:33:01 20.2 18 21.3
003C4AD4 2019-03-03 15:02:30 20.2 18 21.3
003C4AD4 2019-03-03 14:31:58 20.2 18 21.3
003C4AD4 2019-03-03 14:01:27 20.2 18 21.1
003C4AD4 2019-03-03 13:30:55 20.2 18 21.1
003C4AD4 2019-03-03 13:00:22 20.2 18 21.3
003C4AD4 2019-03-03 12:29:51 20.2 18 21.3
003C4AD4 2019-03-03 11:59:19 20.2 18 21.5
003C4AD4 2019-03-03 11:28:46 20.2 18 21.4
003C4AD4 2019-03-03 10:58:15 20.2 18 21.4
003C4AD4 2019-03-03 10:27:46 20.2 18 21.4
003C4AD4 2019-03-03 09:57:12 20.2 18 21.4
003C4AD4 2019-03-03 09:26:41 20.2 18 21.3
003C4AD4 2019-03-03 08:56:10 20.2 18 21.1
003C4AD4 2019-03-03 08:25:38 20.2 18 20.9
003C4AD4 2019-03-03 07:55:05 20.2 18 20.8
003C4AD4 2019-03-03 07:24:34 20.3 18 20.7
003C4AD4 2019-03-03 06:54:00 20.3 18 20.7
003C4AD4 2019-03-03 06:22:55 20.3 18 21
003C4AD4 2019-03-03 05:52:25 20.3 18 20.9
003C4AD4 2019-03-03 05:21:55 20.3 18 20.9
003C4AD4 2019-03-03 04:51:24 20.3 18 20.8
003C4AD4 2019-03-03 04:20:53 20.3 18 20.7
003C4AD4 2019-03-03 03:50:20 20.3 18 20.5
003C4AD4 2019-03-03 03:19:48 20.3 18 20.3
003C4AD4 2019-03-03 02:49:17 20.4 18 20.1
003C4AD4 2019-03-03 02:18:45 20.4 18 20.3
003C4AD4 2019-03-03 01:48:12 20.4 18 20.4
003C4AD4 2019-03-03 01:17:40 20.4 18 20.3
003C4AD4 2019-03-03 00:47:12 20.3 18 20.1
003C4AD4 2019-03-03 00:16:34 20.4 18 20
003C4AD4 2019-03-02 23:46:01 20.4 18 19.8
003C4AD4 2019-03-02 23:15:28 20.4 18 21.3
003C4AD4 2019-03-02 22:44:57 20.4 17 21.2
003C4AD4 2019-03-02 22:14:25 20.4 17 21.3
003C4AD4 2019-03-02 21:43:54 20.4 17 21.2
003C4AD4 2019-03-02 21:13:22 20.4 17 21.1
003C4AD4 2019-03-02 20:42:50 20.4 17 21.4
003C4AD4 2019-03-02 20:12:18 20.5 17 21.4
003C4AD4 2019-03-02 19:41:45 20.5 17 21.5
003C4AD4 2019-03-02 19:11:13 20.5 17 21.6
003C4AD4 2019-03-02 18:40:41 20.5 17 21.7
003C4AD4 2019-03-02 18:10:08 20.5 17 21.5
003C4AD4 2019-03-02 17:39:35 20.5 17 21.5
003C4AD4 2019-03-02 17:09:03 20.6 17 22.5
003C4AD4 2019-03-02 16:38:31 20.5 17 22.6
003C4AD4 2019-03-02 16:07:58 20.5 17 22.7
003C4AD4 2019-03-02 15:37:26 20.5 17 22.8
003C4AD4 2019-03-02 15:06:53 20.4 17 23
003C4AD4 2019-03-02 14:36:20 20.4 16 23.1
003C4AD4 2019-03-02 14:05:47 20.4 16 23.1
003C4AD4 2019-03-02 13:35:13 20.4 16 23.3
003C4AD4 2019-03-02 13:04:40 20.4 16 23.3
003C4AD4 2019-03-02 12:34:07 20.4 16 23.3
003C4AD4 2019-03-02 12:03:35 20.4 16 23.4
003C4AD4 2019-03-02 11:33:03 20.4 16 23.5
003C4AD4 2019-03-02 11:02:32 20.4 16 23.5
003C4AD4 2019-03-02 10:32:00 20.4 16 22.8
003C4AD4 2019-03-02 10:01:28 20.4 16 22.8
003C4AD4 2019-03-02 09:30:56 20.4 15 22.9
003C4AD4 2019-03-02 09:00:23 20.4 15 22.9
003C4AD4 2019-03-02 08:29:50 20.4 15 22.8
003C4AD4 2019-03-02 07:59:16 20.4 15 22.8
003C4AD4 2019-03-02 07:28:45 20.4 15 22.8
003C4AD4 2019-03-02 06:58:11 20.5 15 22.8
003C4AD4 2019-03-02 06:27:40 20.5 15 22.7
003C4AD4 2019-03-02 05:57:08 20.5 15 22.6
003C4AD4 2019-03-02 05:26:37 20.5 15 22.6
003C4AD4 2019-03-02 04:55:34 20.5 15 21.8
003C4AD4 2019-03-02 04:25:03 20.5 15 21.6
003C4AD4 2019-03-02 03:54:31 20.5 15 21.5
003C4AD4 2019-03-02 03:23:59 20.6 15 21.2
003C4AD4 2019-03-02 02:53:27 20.6 15 20.9
003C4AD4 2019-03-02 02:22:55 20.7 14 20.7
003C4AD4 2019-03-02 01:52:24 20.6 14 20.6
003C4AD4 2019-03-02 01:21:54 20.7 14 20.2
003C4AD4 2019-03-02 00:51:22 20.7 14 20
003C4AD4 2019-03-02 00:20:49 20.8 14 20
003C4AD4 2019-03-01 23:50:18 20.8 14 20
003C4AD4 2019-03-01 23:19:46 20.9 14 19.6
003C4AD4 2019-03-01 22:49:14 20.9 14 19.4
003C4AD4 2019-03-01 22:18:43 20.9 14 19.1
003C4AD4 2019-03-01 21:48:10 21 14 20.6
003C4AD4 2019-03-01 21:17:39 21 14 20.3
003C4AD4 2019-03-01 20:47:07 21 14 20.2
003C4AD4 2019-03-01 20:16:35 21 14 20.2
003C4AD4 2019-03-01 19:46:04 21 14 19.9
003C4AD4 2019-03-01 19:15:34 21 14 19.8
003C4AD4 2019-03-01 18:45:02 21.1 14 19.6
003C4AD4 2019-03-01 18:14:30 21.1 15 19.4
003C4AD4 2019-03-01 17:43:58 21.2 15 19.2
003C4AD4 2019-03-01 17:13:27 21.2 15 19.1
003C4AD4 2019-03-01 16:42:56 21.2 15 18.7
003C4AD4 2019-03-01 16:12:24 21.1 15 18.5
003C4AD4 2019-03-01 15:41:57 21 15 18.5
003C4AD4 2019-03-01 15:11:21 21 16 18.4
003C4AD4 2019-03-01 14:40:50 20.9 16 18.6
003C4AD4 2019-03-01 14:10:20 20.9 16 18.7
003C4AD4 2019-03-01 13:39:49 20.8 16 18.7
003C4AD4 2019-03-01 13:09:17 20.8 17 18.7
003C4AD4 2019-03-01 12:38:46 20.9 17 18.8
003C4AD4 2019-03-01 12:08:16 20.8 17 18.8
003C4AD4 2019-03-01 11:37:45 20.8 18 18.6
003C4AD4 2019-03-01 11:07:15 20.8 18 18.4
003C4AD4 2019-03-01 10:36:44 20.7 18 18.5
003C4AD4 2019-03-01 10:06:14 20.6 18 18.5
003C4AD4 2019-03-01 09:35:44 20.5 18 18.5
003C4AD4 2019-03-01 09:05:13 20.5 18 15.4
003C4AD4 2019-03-01 08:34:41 20.5 19 15.2
003C4AD4 2019-03-01 08:04:09 20.6 19 18.6
003C4AD4 2019-03-01 07:33:40 20.6 19 18.5
003C4AD4 2019-03-01 07:03:04 20.6 19 18.5
003C4AD4 2019-03-01 06:32:34 20.6 20 18.5
003C4AD4 2019-03-01 06:02:02 20.6 20 18.5
003C4AD4 2019-03-01 05:31:31 20.6 20 18.7
003C4AD4 2019-03-01 05:00:58 20.6 20 18.6
003C4AD4 2019-03-01 04:30:26 20.6 21 18.5
003C4AD4 2019-03-01 03:59:53 20.6 21 18.5
003C4AD4 2019-03-01 03:28:50 20.7 21 18.5
003C4AD4 2019-03-01 02:58:17 20.7 21 18.3
003C4AD4 2019-03-01 02:27:45 20.7 21 18.6
003C4AD4 2019-03-01 01:57:13 20.7 22 18.6
003C4AD4 2019-03-01 01:26:44 20.7 22 18.6
003C4AD4 2019-03-01 00:56:10 20.7 22 18.6
003C4AD4 2019-03-01 00:25:38 20.8 22 19
003C4AD4 2019-02-28 23:55:06 20.8 23 19.1
003C4AD4 2019-02-28 23:24:36 20.8 23 18.9
003C4AD4 2019-02-28 22:54:04 20.9 23 18.9
003C4AD4 2019-02-28 22:23:34 20.9 23 18.9
003C4AD4 2019-02-28 21:53:00 20.9 23 18.9
003C4AD4 2019-02-28 21:22:33 20.9 24 18.8
003C4AD4 2019-02-28 20:52:01 21 24 18.8
003C4AD4 2019-02-28 20:21:28 21 24 15.8
003C4AD4 2019-02-28 19:50:55 21 24 16.1
003C4AD4 2019-02-28 19:20:20 21.1 24 16.2
003C4AD4 2019-02-28 18:49:47 21.1 24 16.5
003C4AD4 2019-02-28 18:19:15 21.2 25 16.7
003C4AD4 2019-02-28 17:48:44 21.3 25 16.7
003C4AD4 2019-02-28 17:18:12 21.3 25 16.5
003C4AD4 2019-02-28 16:47:37 21.3 26 16.5
003C4AD4 2019-02-28 16:17:08 21.3 26 16.5
003C4AD4 2019-02-28 15:46:34 21.2 25 16.5
003C4AD4 2019-02-28 15:16:06 21.2 25 19.3
003C4AD4 2019-02-28 14:45:34 21.2 25 19.2
003C4AD4 2019-02-28 14:15:02 21.2 25 19.4
003C4AD4 2019-02-28 13:44:29 21.2 25 19.2
003C4AD4 2019-02-28 13:13:58 21.2 24 19.1
003C4AD4 2019-02-28 12:43:26 21.1 24 19.4
003C4AD4 2019-02-28 12:12:56 21.1 24 19.5
003C4AD4 2019-02-28 11:42:25 21 24 19.2
003C4AD4 2019-02-28 11:11:56 21 24 19.2
003C4AD4 2019-02-28 10:41:21 20.9 24 19.3
003C4AD4 2019-02-28 09:40:19 20.8 23 19.3
003C4AD4 2019-02-28 09:09:49 20.8 23 19.2
003C4AD4 2019-02-28 08:39:19 20.8 22 19.5
003C4AD4 2019-02-28 08:08:50 20.7 22 19.6
003C4AD4 2019-02-28 07:38:17 20.8 22 19.5
003C4AD4 2019-02-28 07:07:47 20.8 22 19.5
003C4AD4 2019-02-28 06:37:18 20.8 22 19.5
003C4AD4 2019-02-28 06:06:45 20.8 22 19.4
003C4AD4 2019-02-28 05:36:14 20.8 22 19.4
003C4AD4 2019-02-28 05:05:43 20.8 22 19.4
003C4AD4 2019-02-28 04:35:11 20.8 22 19.6
003C4AD4 2019-02-28 04:04:40 20.8 22 19.9
003C4AD4 2019-02-28 03:34:11 20.8 22 19.9
003C4AD4 2019-02-28 03:03:40 20.8 22 19.9
003C4AD4 2019-02-28 02:33:10 20.8 22 18
003C4AD4 2019-02-28 02:02:06 20.8 23 17.7
003C4AD4 2019-02-28 01:31:36 20.9 23 17.9
003C4AD4 2019-02-28 01:01:08 20.9 23 18
003C4AD4 2019-02-28 00:30:35 20.9 23 17.6
003C4AD4 2019-02-28 00:00:04 20.9 23 17.3
003C4AD4 2019-02-27 23:29:33 21 23 17.3
003C4AD4 2019-02-27 22:59:01 21 23 17.2
003C4AD4 2019-02-27 22:28:30 21 23 17
003C4AD4 2019-02-27 21:57:59 21.1 23 17.4
003C4AD4 2019-02-27 21:27:28 21.1 24 17.4
003C4AD4 2019-02-27 20:56:57 21.2 24 17.6
003C4AD4 2019-02-27 20:26:27 21.2 24 17.3
003C4AD4 2019-02-27 19:55:57 21.2 24 17.5
003C4AD4 2019-02-27 19:25:25 21.3 24 17.5
003C4AD4 2019-02-27 18:54:53 21.4 24 17.4
003C4AD4 2019-02-27 18:24:21 21.5 24 17.3
003C4AD4 2019-02-27 17:53:51 21.6 25 17.2
003C4AD4 2019-02-27 17:23:20 21.6 25 17.1
003C4AD4 2019-02-27 16:52:48 21.6 26 17.1
003C4AD4 2019-02-27 16:22:22 21.6 26 16.9
003C4AD4 2019-02-27 15:51:48 21.5 26 16.6
003C4AD4 2019-02-27 15:21:16 21.5 26 16.8
003C4AD4 2019-02-27 14:50:46 21.4 26 16.8
003C4AD4 2019-02-27 14:20:12 21.3 25 16.4
003C4AD4 2019-02-27 13:49:42 21.2 25 16.4
003C4AD4 2019-02-27 13:19:11 21.2 25 16.3
003C4AD4 2019-02-27 12:48:40 21.2 25 16
003C4AD4 2019-02-27 12:18:08 21.1 25 15.9
003C4AD4 2019-02-27 11:47:35 21.1 25 15.9
003C4AD4 2019-02-27 11:17:05 21.1 25 15.8
003C4AD4 2019-02-27 10:46:33 21 25 18.9
003C4AD4 2019-02-27 10:16:02 20.9 24 18.9
003C4AD4 2019-02-27 09:45:36 20.9 24 19
003C4AD4 2019-02-27 09:15:01 20.9 24 18.8
003C4AD4 2019-02-27 08:44:29 20.9 24 18.8
003C4AD4 2019-02-27 08:13:59 20.9 24 18.6
003C4AD4 2019-02-27 07:43:24 20.9 24 18.5
003C4AD4 2019-02-27 07:12:54 20.9 23 18.5
003C4AD4 2019-02-27 06:42:22 20.9 23 18.5
003C4AD4 2019-02-27 06:11:49 21 23 18.4
003C4AD4 2019-02-27 05:41:19 21 23 18.4
003C4AD4 2019-02-27 05:10:46 21 23 18.4
003C4AD4 2019-02-27 04:40:14 21 23 18.3
003C4AD4 2019-02-27 04:09:42 21 23 18.4
003C4AD4 2019-02-27 03:39:09 21 23 18.5
003C4AD4 2019-02-27 03:08:36 21.1 24 18.3
003C4AD4 2019-02-27 02:38:04 21.1 23 18.2
003C4AD4 2019-02-27 02:07:31 21.1 24 18.2
003C4AD4 2019-02-27 01:36:58 21.1 24 18.1
003C4AD4 2019-02-27 01:06:25 21.2 24 18.1
003C4AD4 2019-02-27 00:35:20 21.2 24 18.5
003C4AD4 2019-02-27 00:04:50 21.2 24 18.6
003C4AD4 2019-02-26 23:34:15 21.3 24 18.7
003C4AD4 2019-02-26 23:03:43 21.4 24 18.8
003C4AD4 2019-02-26 22:33:11 21.4 24 16
003C4AD4 2019-02-26 22:02:40 21.4 24 19
003C4AD4 2019-02-26 21:32:07 21.5 24 20.7
003C4AD4 2019-02-26 21:01:34 21.5 24 21.9
003C4AD4 2019-02-26 20:31:01 21.6 24 22.9
003C4AD4 2019-02-26 20:00:28 21.6 24 23.7
003C4AD4 2019-02-26 19:29:54 21.7 24 24.4
003C4AD4 2019-02-26 18:59:24 21.7 24 24.9
003C4AD4 2019-02-26 18:28:51 21.8 24 25.4
003C4AD4 2019-02-26 17:58:20 21.8 24 25.9
003C4AD4 2019-02-26 17:27:45 21.8 24 25.9
003C4AD4 2019-02-26 16:57:13 21.8 25 26.3
003C4AD4 2019-02-26 16:26:44 21.7 25 26.7
003C4AD4 2019-02-26 15:56:13 21.6 25 27.1
003C4AD4 2019-02-26 15:25:40 21.5 25 27.4
003C4AD4 2019-02-26 14:55:08 21.5 25 27.7
003C4AD4 2019-02-26 14:24:37 21.5 24 27.9
003C4AD4 2019-02-26 13:54:05 21.4 24 28.2
003C4AD4 2019-02-26 13:23:35 21.4 25 28.5
003C4AD4 2019-02-26 12:53:06 21.3 24 28.7
003C4AD4 2019-02-26 12:22:31 21.3 25 28.9
003C4AD4 2019-02-26 11:52:01 21.2 24 29.1
003C4AD4 2019-02-26 11:21:28 21.2 24 29.3
003C4AD4 2019-02-26 10:50:55 21.1 24 29.5
003C4AD4 2019-02-26 10:20:24 21 24 29.7
003C4AD4 2019-02-26 09:49:52 20.9 23 29.8
003C4AD4 2019-02-26 09:19:19 20.9 23 29.8
003C4AD4 2019-02-26 08:48:48 20.9 23 29.8
003C4AD4 2019-02-26 08:18:17 20.9 23 29.8
003C4AD4 2019-02-26 07:47:44 20.9 23 29.8
003C4AD4 2019-02-26 07:17:13 20.9 23 29.8
003C4AD4 2019-02-26 06:46:41 20.9 22 29.8
003C4AD4 2019-02-26 06:16:10 20.9 22 29.8
003C4AD4 2019-02-26 05:45:38 20.9 22 29.8
003C4AD4 2019-02-26 05:15:06 20.9 22 29.8
003C4AD4 2019-02-26 04:44:35 21 22 30
003C4AD4 2019-02-26 04:14:04 21 22 29.9
003C4AD4 2019-02-26 03:43:32 21 22 29.9
003C4AD4 2019-02-26 03:13:00 21 22 29.7
003C4AD4 2019-02-26 02:42:28 21 22 29.5
003C4AD4 2019-02-26 02:11:54 21 22 29.3
003C4AD4 2019-02-26 01:41:21 21 22 29.2
003C4AD4 2019-02-26 01:10:48 21.1 22 29
003C4AD4 2019-02-26 00:40:15 21.1 22 28.7
003C4AD4 2019-02-26 00:09:42 21.1 22 28.5
003C4AD4 2019-02-25 23:39:10 21.2 21 28.3
003C4AD4 2019-02-25 23:08:07 21.2 22 27.8
003C4AD4 2019-02-25 22:37:35 21.3 21 27.5
003C4AD4 2019-02-25 22:07:03 21.3 22 27.2
003C4AD4 2019-02-25 21:36:32 21.3 21 26.8
003C4AD4 2019-02-25 21:06:01 21.4 21 26.5
003C4AD4 2019-02-25 20:35:29 21.4 22 26.1
003C4AD4 2019-02-25 20:04:57 21.5 22 25.6
003C4AD4 2019-02-25 19:34:25 21.5 22 25.2
003C4AD4 2019-02-25 19:03:54 21.5 22 24.6
003C4AD4 2019-02-25 18:33:22 21.6 22 24
003C4AD4 2019-02-25 18:02:50 21.6 22 23.3
003C4AD4 2019-02-25 17:32:18 21.6 22 22.4
003C4AD4 2019-02-25 17:01:49 21.6 22 22.4
003C4AD4 2019-02-25 16:31:17 21.6 22 21.3
003C4AD4 2019-02-25 16:00:48 21.6 23 20.9
003C4AD4 2019-02-25 15:30:15 21.5 23 19.2
003C4AD4 2019-02-25 14:59:43 21.4 23 19.3
003C4AD4 2019-02-25 14:29:13 21.3 23 19.3
003C4AD4 2019-02-25 13:28:10 21.2 23 19.3
003C4AD4 2019-02-25 12:57:38 21.1 23 19.3
003C4AD4 2019-02-25 11:56:35 21 23 19.3
003C4AD4 2019-02-25 11:26:03 20.9 23 19.3
003C4AD4 2019-02-25 10:55:32 20.8 23 19.2
003C4AD4 2019-02-25 10:25:01 20.8 23 19.2
003C4AD4 2019-02-25 09:54:28 20.7 22 19.2
003C4AD4 2019-02-25 09:23:55 20.6 22 19.2
003C4AD4 2019-02-25 08:53:24 20.6 22 19.3
003C4AD4 2019-02-25 08:22:57 20.6 22 19.3
003C4AD4 2019-02-25 07:52:23 20.6 22 19.3
003C4AD4 2019-02-25 07:21:51 20.6 22 19.3
003C4AD4 2019-02-25 06:51:20 20.6 22 19.3
003C4AD4 2019-02-25 06:20:47 20.6 22 19.3
003C4AD4 2019-02-25 05:50:15 20.6 22 19.3
003C4AD4 2019-02-25 05:19:43 20.6 22 19.3
003C4AD4 2019-02-25 04:49:10 20.7 22 19.3
003C4AD4 2019-02-25 04:18:38 20.7 22 19.3
003C4AD4 2019-02-25 03:48:05 20.7 23 16.8
003C4AD4 2019-02-25 03:17:33 20.7 23 16.9
003C4AD4 2019-02-25 02:47:01 20.7 23 16.9
003C4AD4 2019-02-25 02:16:30 20.7 23 16.8
003C4AD4 2019-02-25 01:45:57 20.7 23 16.8
003C4AD4 2019-02-25 01:15:25 20.7 23 16.6
003C4AD4 2019-02-25 00:44:53 20.7 23 16.6
003C4AD4 2019-02-25 00:14:21 20.7 23 16.4
003C4AD4 2019-02-24 23:43:50 20.7 23 15.9
003C4AD4 2019-02-24 23:13:19 20.7 23 16.2
003C4AD4 2019-02-24 22:42:50 20.7 23 15.8
003C4AD4 2019-02-24 22:12:18 20.8 23 15.8
003C4AD4 2019-02-24 21:41:13 20.8 23 15.5
003C4AD4 2019-02-24 21:10:42 20.8 23 15.4
003C4AD4 2019-02-24 20:40:10 20.8 23 15.3
003C4AD4 2019-02-24 20:09:39 20.8 23 15.2
003C4AD4 2019-02-24 19:39:09 20.8 23 15.1
003C4AD4 2019-02-24 19:08:37 20.8 23 15.1
003C4AD4 2019-02-24 18:38:07 20.8 23 14.9
003C4AD4 2019-02-24 18:07:37 20.8 23 14.7
003C4AD4 2019-02-24 17:37:07 20.8 23 14.5
003C4AD4 2019-02-24 17:06:37 20.8 22 14.6
003C4AD4 2019-02-24 16:36:06 20.8 22 14.5
003C4AD4 2019-02-24 16:05:34 20.8 22 14.4
003C4AD4 2019-02-24 15:35:04 20.8 22 13.8
003C4AD4 2019-02-24 15:04:34 20.8 22 13.8
003C4AD4 2019-02-24 14:34:05 20.8 22 14
003C4AD4 2019-02-24 14:03:37 20.8 22 13.9
003C4AD4 2019-02-24 13:33:04 20.8 22 13.9
003C4AD4 2019-02-24 13:02:34 20.8 22 13.7
003C4AD4 2019-02-24 12:32:03 20.8 22 13.8
003C4AD4 2019-02-24 11:31:02 20.8 22 13.9
003C4AD4 2019-02-24 11:00:31 20.8 21 13.9
003C4AD4 2019-02-24 10:30:00 20.8 21 13.4
003C4AD4 2019-02-24 09:59:34 20.8 21 13.4
003C4AD4 2019-02-24 09:28:59 20.8 21 13.3
003C4AD4 2019-02-24 08:58:30 20.8 21 13.4
003C4AD4 2019-02-24 08:28:04 20.8 21 13.6
003C4AD4 2019-02-24 07:57:30 20.8 21 13.6
003C4AD4 2019-02-24 07:27:00 20.8 21 13.5
003C4AD4 2019-02-24 06:56:28 20.8 21 13.6
003C4AD4 2019-02-24 06:26:01 20.9 21 13.9
003C4AD4 2019-02-24 05:55:26 20.9 21 13.8
003C4AD4 2019-02-24 05:24:54 20.9 21 13.8
003C4AD4 2019-02-24 04:54:23 20.9 21 13.9
003C4AD4 2019-02-24 04:23:53 20.9 21 14
003C4AD4 2019-02-24 03:53:23 20.9 21 14.2
003C4AD4 2019-02-24 03:22:51 20.9 20 14.1
003C4AD4 2019-02-24 02:21:49 20.9 20 14.1
003C4AD4 2019-02-24 01:20:48 21 20 14.1
003C4AD4 2019-02-24 00:50:17 21 20 14.2
003C4AD4 2019-02-24 00:19:46 21 20 14.3
003C4AD4 2019-02-23 23:49:14 21 20 14.3
003C4AD4 2019-02-23 23:18:47 21 19 14.3
003C4AD4 2019-02-23 22:48:10 21.1 19 14.1
003C4AD4 2019-02-23 22:17:39 21.1 19 13.8
003C4AD4 2019-02-23 21:47:07 21.1 19 13.8
003C4AD4 2019-02-23 21:16:36 21.1 19 13.8
003C4AD4 2019-02-23 20:46:06 21.1 19 14
003C4AD4 2019-02-23 20:15:03 21.2 18 14.3
003C4AD4 2019-02-23 19:44:27 21.2 18 14.2
003C4AD4 2019-02-23 19:13:54 21.2 18 14.5
003C4AD4 2019-02-23 18:43:24 21.2 18 14.5
003C4AD4 2019-02-23 18:12:52 21.2 17 14.9
003C4AD4 2019-02-23 17:42:22 21.2 17 15.1
003C4AD4 2019-02-23 17:11:46 21.2 17 15
003C4AD4 2019-02-23 16:41:16 21.2 17 14.9
003C4AD4 2019-02-23 16:10:42 21.1 17 14.9
003C4AD4 2019-02-23 15:40:12 21 17 14.9
003C4AD4 2019-02-23 15:09:39 20.9 16 14.8
003C4AD4 2019-02-23 14:39:08 20.9 16 15
003C4AD4 2019-02-23 14:08:38 20.9 16 15.4
003C4AD4 2019-02-23 13:38:08 20.9 15 15.6
003C4AD4 2019-02-23 13:07:37 20.9 15 15.6
003C4AD4 2019-02-23 12:37:03 20.9 15 15.6
003C4AD4 2019-02-23 12:06:34 20.9 15 15.8
003C4AD4 2019-02-23 11:36:01 20.9 15 15.8
003C4AD4 2019-02-23 11:05:29 20.9 15 15.8
003C4AD4 2019-02-23 10:34:56 20.8 15 15.8
003C4AD4 2019-02-23 10:04:22 20.8 14 16
003C4AD4 2019-02-23 09:33:49 20.8 14 16.1
003C4AD4 2019-02-23 09:03:20 20.8 14 16.1
003C4AD4 2019-02-23 08:32:42 20.8 14 16
003C4AD4 2019-02-23 08:02:13 20.9 14 16.2
003C4AD4 2019-02-23 07:31:38 20.8 14 16.1
003C4AD4 2019-02-23 07:01:07 20.9 13 16.2
003C4AD4 2019-02-23 06:30:36 20.8 13 16.2
003C4AD4 2019-02-23 06:00:04 20.8 13 16.1
003C4AD4 2019-02-23 05:29:32 20.8 13 15.8
003C4AD4 2019-02-23 04:59:00 20.8 13 15.5
003C4AD4 2019-02-23 04:28:28 20.9 13 15.7
003C4AD4 2019-02-23 03:57:58 20.9 13 15.6
003C4AD4 2019-02-23 03:27:20 20.9 12 15.5
003C4AD4 2019-02-23 02:56:47 20.9 12 15.8
003C4AD4 2019-02-23 02:26:13 20.9 12 16.2
003C4AD4 2019-02-23 01:55:42 20.9 12 16
003C4AD4 2019-02-23 01:25:12 20.9 12 15.3
003C4AD4 2019-02-23 00:54:42 20.9 12 15.2
003C4AD4 2019-02-23 00:24:11 20.9 12 15.5
003C4AD4 2019-02-22 23:53:39 21 12 15.8
003C4AD4 2019-02-22 23:23:07 21 12 15.8
003C4AD4 2019-02-22 22:52:37 21 12 15.8
003C4AD4 2019-02-22 22:22:05 21 12 15.9
003C4AD4 2019-02-22 21:51:33 21 12 15.8
003C4AD4 2019-02-22 21:21:04 21.1 12 15.7
003C4AD4 2019-02-22 20:50:38 21.1 12 15.9
003C4AD4 2019-02-22 20:20:03 21.1 12 16.1
003C4AD4 2019-02-22 19:49:34 21.1 12 16.2
003C4AD4 2019-02-22 19:19:01 21.4 12 15.9
003C4AD4 2019-02-22 19:17:50 21.2 12 15.8
003C4AD4 2019-02-22 19:07:34 21.2 12 15.7
003C4AD4 2019-02-22 18:57:18 21.2 12 15.6
003C4AD4 2019-02-22 18:47:01 21.2 12 15.8
003C4AD4 2019-02-22 18:36:45 21.2 12 15.8
003C4AD4 2019-02-22 18:26:29 21.2 12 16.3
003C4AD4 2019-02-22 18:16:12 21.2 12 16.3
003C4AD4 2019-02-22 18:05:56 21.2 12 16.2
003C4AD4 2019-02-22 17:55:40 21.2 12 16.6
003C4AD4 2019-02-22 17:45:24 21.2 12 16.3
003C4AD4 2019-02-22 17:35:09 21.2 12 16
003C4AD4 2019-02-22 17:24:51 21.2 12 16.1
003C4AD4 2019-02-22 17:14:34 21.2 12 16
003C4AD4 2019-02-22 17:04:18 21.2 12 16.5
003C4AD4 2019-02-22 16:54:03 21.2 12 16.3
003C4AD4 2019-02-22 16:43:45 21.2 12 16.2
003C4AD4 2019-02-22 16:33:28 21.2 12 16.4
003C4AD4 2019-02-22 16:23:14 21.2 12 16.1
003C4AD4 2019-02-22 16:12:55 21.1 12 16.1
003C4AD4 2019-02-22 16:02:39 21.1 12 16.6
003C4AD4 2019-02-22 15:52:23 21.1 12 16.8
003C4AD4 2019-02-22 15:42:06 21.1 12 16.7
003C4AD4 2019-02-22 15:31:51 21.1 12 16.5
003C4AD4 2019-02-22 15:21:33 21 12 16.7
003C4AD4 2019-02-22 15:11:19 21 12 16.9
003C4AD4 2019-02-22 15:01:00 20.9 12 17
003C4AD4 2019-02-22 14:50:43 20.9 12 16.9
003C4AD4 2019-02-22 14:40:29 20.9 13 16.9
003C4AD4 2019-02-22 14:30:10 20.9 13 16.7
003C4AD4 2019-02-22 14:19:54 20.9 13 16.8
003C4AD4 2019-02-22 14:09:37 20.9 13 16.3
003C4AD4 2019-02-22 13:59:21 20.8 13 16.1
003C4AD4 2019-02-22 13:49:04 20.8 13 16.6
003C4AD4 2019-02-22 13:38:48 20.8 13 16.4
003C4AD4 2019-02-22 13:28:34 20.8 13 16.5
003C4AD4 2019-02-22 13:18:15 20.8 13 16.8
003C4AD4 2019-02-22 13:08:00 20.8 13 16.7
003C4AD4 2019-02-22 12:57:42 20.8 13 16.9
003C4AD4 2019-02-22 12:47:24 20.8 13 16.4
003C4AD4 2019-02-22 12:37:11 20.7 13 16.6
003C4AD4 2019-02-22 12:26:54 20.7 13 16.6
003C4AD4 2019-02-22 12:16:37 20.7 13 16.3
003C4AD4 2019-02-22 12:06:19 20.7 13 16.3
003C4AD4 2019-02-22 11:56:05 20.7 13 16.7
003C4AD4 2019-02-22 11:45:47 20.7 13 16.2
003C4AD4 2019-02-22 11:35:31 20.7 13 15.9
003C4AD4 2019-02-22 11:25:15 20.6 13 15.8
003C4AD4 2019-02-22 11:15:00 20.6 13 16.1
003C4AD4 2019-02-22 11:04:41 20.6 13 15.8
003C4AD4 2019-02-22 10:54:24 20.6 13 15.4
003C4AD4 2019-02-22 10:43:35 20.5 13 15.3
003C4AD4 2019-02-22 10:33:19 20.5 13 15.6
003C4AD4 2019-02-22 10:23:02 20.5 13 15.5
003C4AD4 2019-02-22 10:12:44 20.5 13 16
003C4AD4 2019-02-22 10:02:30 20.5 13 16.4
003C4AD4 2019-02-22 09:52:13 20.5 13 16.6
003C4AD4 2019-02-22 09:41:54 20.5 13 16.6
003C4AD4 2019-02-22 09:31:42 20.5 13 16.1
003C4AD4 2019-02-22 09:21:23 20.5 13 16.4
003C4AD4 2019-02-22 09:11:07 20.5 13 16.6
003C4AD4 2019-02-22 09:00:48 20.5 13 16.4
003C4AD4 2019-02-22 08:50:31 20.5 13 16.4
003C4AD4 2019-02-22 08:40:16 20.5 13 16.6
003C4AD4 2019-02-22 08:29:57 20.5 13 16.7
003C4AD4 2019-02-22 08:19:40 20.5 13 16.5
003C4AD4 2019-02-22 08:09:25 20.5 13 16.4
003C4AD4 2019-02-22 07:59:06 20.5 13 16.6
003C4AD4 2019-02-22 07:48:52 20.5 13 16.8
003C4AD4 2019-02-22 07:38:33 20.5 13 17
003C4AD4 2019-02-22 07:28:17 20.5 13 17.1
003C4AD4 2019-02-22 07:18:00 20.5 13 17.1
003C4AD4 2019-02-22 07:07:44 20.5 13 17.2
003C4AD4 2019-02-22 06:57:27 20.5 13 17.4
003C4AD4 2019-02-22 06:47:10 20.6 13 17.5
003C4AD4 2019-02-22 06:36:55 20.5 13 17.5
003C4AD4 2019-02-22 06:26:38 20.5 13 17.7
003C4AD4 2019-02-22 06:16:19 20.6 13 17.5
003C4AD4 2019-02-22 06:06:05 20.6 13 17.8
003C4AD4 2019-02-22 05:55:47 20.6 13 17.5
003C4AD4 2019-02-22 05:45:30 20.6 13 17.4
003C4AD4 2019-02-22 05:35:12 20.6 13 17.5
003C4AD4 2019-02-22 05:24:56 20.6 13 17.9
003C4AD4 2019-02-22 05:14:39 20.6 13 18.1
003C4AD4 2019-02-22 04:54:06 20.6 13 17.8
003C4AD4 2019-02-22 04:43:50 20.6 13 18
003C4AD4 2019-02-22 04:33:34 20.6 13 18
003C4AD4 2019-02-22 04:23:18 20.6 13 17.8
003C4AD4 2019-02-22 04:13:01 20.6 13 17.9
003C4AD4 2019-02-22 04:02:47 20.6 13 18.1
003C4AD4 2019-02-22 03:52:29 20.6 13 18.3
003C4AD4 2019-02-22 03:42:13 20.6 13 18.1
003C4AD4 2019-02-22 03:31:57 20.6 13 18
003C4AD4 2019-02-22 03:21:41 20.6 13 17.5
003C4AD4 2019-02-22 03:11:27 20.6 13 17.6
003C4AD4 2019-02-22 03:01:11 20.6 13 17.6
003C4AD4 2019-02-22 02:50:53 20.6 13 17.4
003C4AD4 2019-02-22 02:40:36 20.6 13 17.3
003C4AD4 2019-02-22 02:30:19 20.7 13 19.7
003C4AD4 2019-02-22 02:20:03 20.7 13 21.2
003C4AD4 2019-02-22 02:09:13 20.6 13 23.2
003C4AD4 2019-02-22 01:38:41 20.7 13 23.9
003C4AD4 2019-02-22 01:08:11 20.7 14 24.5
003C4AD4 2019-02-22 00:37:37 20.7 14 24.5
003C4AD4 2019-02-22 00:07:05 20.7 14 24.5
003C4AD4 2019-02-21 23:36:35 20.7 14 24.4
003C4AD4 2019-02-21 23:06:02 20.8 14 24.4
003C4AD4 2019-02-21 22:35:31 20.8 14 24.3
003C4AD4 2019-02-21 22:04:59 20.8 14 24.3
003C4AD4 2019-02-21 21:34:28 20.9 14 24.3
003C4AD4 2019-02-21 21:03:59 20.9 14 24.3
003C4AD4 2019-02-21 20:33:25 20.9 14 24.4
003C4AD4 2019-02-21 20:02:56 21 14 24.3
003C4AD4 2019-02-21 19:32:23 21 14 24.3
003C4AD4 2019-02-21 19:01:53 21.1 14 24.3
003C4AD4 2019-02-21 18:31:21 21.1 14 24.3
003C4AD4 2019-02-21 18:00:49 21.1 15 24.3
003C4AD4 2019-02-21 17:30:18 21.1 15 24.3
003C4AD4 2019-02-21 16:59:45 21.1 15 24.3
003C4AD4 2019-02-21 16:29:13 20.9 15 24.4
003C4AD4 2019-02-21 15:58:46 20.8 15 24.4
003C4AD4 2019-02-21 15:28:14 20.8 15 24.4
003C4AD4 2019-02-21 13:56:35 20.7 16 23.7
003C4AD4 2019-02-21 13:26:04 20.7 16 23
003C4AD4 2019-02-21 12:55:34 20.6 16 22
003C4AD4 2019-02-21 12:25:04 20.6 17 20.9
003C4AD4 2019-02-21 11:54:33 20.7 17 19.4
003C4AD4 2019-02-21 11:24:02 20.6 17 16.7
003C4AD4 2019-02-21 10:53:36 20.6 17 17
003C4AD4 2019-02-21 10:23:07 20.6 18 17.1
003C4AD4 2019-02-21 09:52:32 20.6 18 17
003C4AD4 2019-02-21 09:22:03 20.7 18 17.2
003C4AD4 2019-02-21 08:51:29 20.6 18 17.2
003C4AD4 2019-02-21 08:20:56 20.7 19 17.2
003C4AD4 2019-02-21 07:19:52 20.7 19 17.1
003C4AD4 2019-02-21 06:49:20 20.7 19 17.2
003C4AD4 2019-02-21 06:18:47 20.7 19 16.9
003C4AD4 2019-02-21 05:48:16 20.7 19 17.1
003C4AD4 2019-02-21 05:17:42 20.7 20 17.2
003C4AD4 2019-02-21 04:47:12 20.7 20 16.9
003C4AD4 2019-02-21 04:16:37 20.7 20 17
003C4AD4 2019-02-21 03:46:04 20.8 20 17.1
003C4AD4 2019-02-21 03:15:31 20.8 20 17.1
003C4AD4 2019-02-21 02:44:58 20.8 20 16.8
003C4AD4 2019-02-21 02:14:26 20.8 20 16.4
003C4AD4 2019-02-21 01:43:55 20.8 20 16
003C4AD4 2019-02-21 01:13:24 21 20 19
003C4AD4 2019-02-21 01:12:11 20.8 21 20.7
003C4AD4 2019-02-21 00:41:38 20.8 21 20.6
003C4AD4 2019-02-21 00:11:07 20.8 21 21.9
003C4AD4 2019-02-20 23:40:32 20.8 21 22.8
003C4AD4 2019-02-20 23:09:59 20.8 21 22.7
003C4AD4 2019-02-20 22:39:26 20.8 21 22.7
003C4AD4 2019-02-20 22:08:55 20.8 21 22.7
003C4AD4 2019-02-20 21:38:24 20.8 21 22.6
003C4AD4 2019-02-20 21:07:52 20.8 22 23.4
003C4AD4 2019-02-20 20:37:20 20.8 22 23.4
003C4AD4 2019-02-20 20:06:50 20.8 22 23.4
003C4AD4 2019-02-20 19:36:17 20.8 22 23.4
003C4AD4 2019-02-20 19:05:44 20.9 22 23.4
003C4AD4 2019-02-20 18:35:13 20.9 22 23.4
003C4AD4 2019-02-20 18:04:39 20.9 22 23.4
003C4AD4 2019-02-20 17:34:08 20.9 23 23.4
003C4AD4 2019-02-20 17:03:40 20.9 23 23.4
003C4AD4 2019-02-20 16:33:09 20.9 24 23.4
003C4AD4 2019-02-20 16:02:34 20.9 24 23.4
003C4AD4 2019-02-20 15:32:03 20.8 24 23.4
003C4AD4 2019-02-20 15:01:35 20.9 24 23.4
003C4AD4 2019-02-20 14:30:58 20.9 24 23.5